This site uses a module created by best online poker sites.

BSB police report ending May 23, 2018

"05/22/2018","00:03","218CR0012526","T/S","DUI - (REFUSAL)","900 BLK ANTIMONY ST","ARREST(s) MADE",""
"05/22/2018","00:26","218CR0012527","SUSPICIOUS ACTIVITY","SUSPICIOUS ACTIVITY","MONTANA N AND JOSETTE","",""
"05/22/2018","00:53","218CR0012528","ASSAULT","ASSAULT","************","",""
"05/22/2018","01:37","218CR0012529","TRAFFIC HAZARD","TRAFFIC HAZARD","I15 MM 125 NB","",""
"05/22/2018","01:58","218CR0012530","ASSIST OTHER AGENCY","ASSIST OTHER AGENCY","MAIN AND QUARTZ ST","",""
"05/22/2018","02:04","218CR0012531","T/S","T/S","GEORGE AND OREGON","",""
"05/22/2018","02:29","218CR0012532","BUSINESS CHECK","CRIMINAL CONTEMPT","1370 HARRISON AVE","ARREST(s) MADE",""
"05/22/2018","02:47","218CR0012533","DISTURBANCE","DISTURBANCE","1208 N MAIN","",""
"05/22/2018","03:12","218CR0012534","SUSPICIOUS ACTIVITY","SUSPICIOUS ACTIVITY","I 90 MM 213 214 WB","",""
"05/22/2018","04:09","218CR0012535","MEDICAL - EMERGENCY","MEDICAL - EMERGENCY","1515 OREGON AVE APT 502","",""
"05/22/2018","04:31","218CR0012536","SUICIDE ATTEMPT/THREAT","SUICIDE ATTEMPT/THREAT","************","",""
"05/22/2018","04:41","218CR0012537","SUSPICIOUS ACTIVITY","SUSPICIOUS ACTIVITY","3751 WYNNE AVE","",""
"05/22/2018","05:03","218CR0012538","T/S","T/S","MEADOWLARK AND PAXSON","",""
"05/22/2018","06:41","218CR0012539","LED BUSINESS","LED BUSINESS","24 E COPPER","",""
"05/22/2018","07:01","218CR0012540","RESTRAINING ORDER VIOLATION","VIOLATION OF PROTECTION ORDER","2300 S MONTANA","",""
"05/22/2018","07:27","218CR0012541","CIVIL PAPER SERVICE","CIVIL PAPER SERVICE","430 COLORADO","",""
"05/22/2018","07:36","218CR0012542","CIVIL PAPER SERVICE","CIVIL PAPER SERVICE","324 N EXCELSIOR","",""
"05/22/2018","07:37","218CR0012543","CIVIL PAPER SERVICE","CIVIL PAPER SERVICE","520 N WYOMING ST","",""
"05/22/2018","07:38","218CR0012544","MEDICAL - EMERGENCY","MEDICAL - EMERGENCY","614 W GALENA","",""
"05/22/2018","07:40","218CR0012545","WELFARE CHECK","WELFARE CHECK","2024 S ARIZONA","",""
"05/22/2018","07:46","218CR0012546","T/S","T/S","3300 BLK BURLINGTON","",""
"05/22/2018","07:48","218CR0012547","WANTED PERSON","CRIMINAL CONTEMPT","400 S CLARK ST","ARREST(s) MADE",""
"05/22/2018","07:59","218CR0012548","CIVIL PAPER SERVICE","CIVIL PAPER SERVICE","712 1/2 W GALENA ST","",""
"05/22/2018","08:08","218CR0012549","T/S","T/S","1400 BLK DEWEY","",""
"05/22/2018","08:14","218CR0012550","CIVIL PAPER SERVICE","CIVIL PAPER SERVICE","3101 COBBAN ST","",""
"05/22/2018","08:20","218CR0012551","THEFT","THEFT","533 S DAKOTA ST","",""
"05/22/2018","08:21","218CR0012552","CIVIL PAPER SERVICE","CIVIL PAPER SERVICE","2321 SILVER BOW","",""
"05/22/2018","08:29","218CR0012553","CIVIL PAPER SERVICE","CIVIL PAPER SERVICE","611 W IRON","",""
"05/22/2018","08:31","218CR0012554","CIVIL PAPER SERVICE","CIVIL PAPER SERVICE","709 PLACER ST","",""
"05/22/2018","08:32","218CR0012555","UNKNOWN PROBLEM","UNKNOWN PROBLEM","605 SCHLEY #A","",""
"05/22/2018","08:36","218CR0012556","CIVIL PAPER SERVICE","CIVIL PAPER SERVICE","1115 W PARK","",""
"05/22/2018","08:39","218CR0012557","CIVIL PAPER SERVICE","CIVIL PAPER SERVICE","1132 W PLATINUM","",""
"05/22/2018","08:51","218CR0012558","DISTURBANCE","DISTURBANCE","633 S IDAHO","",""
"05/22/2018","08:55","218CR0012559","SUSPICIOUS ACTIVITY","SUSPICIOUS ACTIVITY","600 BLK S CRYSTAL","",""
"05/22/2018","09:06","218CR0012560","CIVIL PAPER SERVICE","CIVIL PAPER SERVICE","110 CLINTON AVE","",""
"05/22/2018","09:08","218CR0012561","MEDICAL - EMERGENCY","MEDICAL - EMERGENCY","39 W DALY","",""
"05/22/2018","09:14","218CR0012562","SUSPICIOUS ACTIVITY","SUSPICIOUS ACTIVITY","1700 BLK HARRISON","",""
"05/22/2018","09:48","218CR0012563","FRAUD","DECEPTIVE PRACT - CREDIT CARD","2010 GILMAN","",""
"05/22/2018","09:53","218CR0012564","TRAFFIC HAZARD","TRAFFIC HAZARD","21 N JACKSON","",""
"05/22/2018","10:03","218CR0012565","THEFT","THEFT","2208 WALNUT ST","",""
"05/22/2018","10:18","218CR0012566","SUSPICIOUS ACTIVITY","SUSPICIOUS ACTIVITY","155 W GRANITE ST","",""
"05/22/2018","10:54","218CR0012568","ATL","ATL","I90 MP 239 WB","",""
"05/22/2018","10:56","218CR0012569","THEFT","THEFT FROM MOTOR VEHICLE","121 W GALENA","",""
"05/22/2018","11:12","218CR0012570","STOLEN VEHICLE","MOTOR VEHICLE THEFT","1800 BLK LONGFELLOW","",""
"05/22/2018","11:15","218CR0012571","FRAUD","THEFT OF IDENTITY","323 N JACKSON ST APT B","",""
"05/22/2018","11:19","218CR0012572","MEDICAL - EMERGENCY","MEDICAL - EMERGENCY","1810 HOWARD","",""
"05/22/2018","11:21","218CR0012573","THEFT","THEFT","120 N PARKMONT","",""
"05/22/2018","11:46","218CR0012575","WELFARE CHECK","WELFARE CHECK","2023 JOHNS","",""
"05/22/2018","12:11","218CR0012577","CIVIL PAPER SERVICE","CIVIL PAPER SERVICE","314 W COPPER","",""
"05/22/2018","12:34","218CR0012578","FRAUD","DECEPTIVE PRACT - CREDIT CARD","225 N ALASKA","",""
"05/22/2018","12:35","218CR0012579","CITIZEN AID","CITIZEN AID","225 N ALASKA","",""
"05/22/2018","12:41","218CR0012580","CIVIL PAPER SERVICE","CIVIL PAPER SERVICE","3901 HARRISON AVE","",""
"05/22/2018","12:41","218CR0012581","ATL","ATL","1920 WILSON","",""
"05/22/2018","12:47","218CR0012582","VEHICLE INSPECTION","VEHICLE INSPECTION","102 N PARKMONT","",""
"05/22/2018","12:49","218CR0012583","CITIZEN AID","CITIZEN AID","4500 CONTINENTAL DR","",""
"05/22/2018","12:55","218CR0012584","VANDALISM/CRIMINAL MISCHIEF","CRIMINAL MISCHIEF","643 S UTAH","",""
"05/22/2018","13:01","218CR0012585","ANIMAL COMPLAINT","ANIMAL COMPLAINT","HOLMES AND GAYLORD","",""
"05/22/2018","13:22","218CR0012586","JUVENILE MISC","JUVENILE MISC","************","",""
"05/22/2018","13:33","218CR0012587","CITIZEN AID","CITIZEN AID","225 N ALASKA","",""
"05/22/2018","13:56","218CR0012588","T/S","T/S","MERCURY AND DAKOTA","",""
"05/22/2018","14:03","218CR0012589","CITIZEN AID","CITIZEN AID","","",""
"05/22/2018","14:04","218CR0012590","LED BUSINESS","LED BUSINESS","155 W QUARTZ","",""
"05/22/2018","14:06","218CR0012591","STOLEN VEHICLE","STOLEN VEHICLE","400 S CLARK ST","",""
"05/22/2018","14:31","218CR0012592","VANDALISM/CRIMINAL MISCHIEF","CRIMINAL MISCHIEF","4075 WYNNE AVE","",""
"05/22/2018","14:34","218CR0012593","FRAUD","THEFT BY DECEPTION","117 W IRON","",""
"05/22/2018","14:37","218CR0012594","CIVIL STANDBY","CIVIL STANDBY","1215 N EXCELSIOR","",""
"05/22/2018","14:42","218CR0012595","T/S","T/S @ GARRISON AND A ST","GARRISON AND A ST","",""
"05/22/2018","15:00","218CR0012596","WELFARE CHECK","WELFARE CHECK","304 N MAIN","",""
"05/22/2018","15:05","218CR0012597","ALL OTHER","ALL OTHER","225 N ALASKA","",""
"05/22/2018","15:13","218CR0012598","ALL OTHER","PROTECTIVE CUSTODY","1822 B ST","ARREST(s) MADE",""
"05/22/2018","15:30","218CR0012599","ABANDONED VEHICLE","ABANDONED VEHICLE","WESTERN AND STEELE","",""
"05/22/2018","15:47","218CR0012600","ATL","ATL","CONTINENTAL AND SECOND","",""
"05/22/2018","16:00","218CR0012601","BUSINESS CHECK","BUSINESS CHECK","3878 PAXSON AVE","",""
"05/22/2018","16:01","218CR0012602","T/S","T/S @ 1315 S MONTANA RED ZONE","1315 S MONTANA RED ZONE","",""
"05/22/2018","17:10","218CR0012603","LOST OR STOLEN PROPERTY","LOST OR STOLEN PROPERTY","225 N ALASKA","",""
"05/22/2018","17:19","218CR0012604","SUICIDE ATTEMPT/THREAT","SUICIDE ATTEMPT/THREAT","************","",""
"05/22/2018","17:41","218CR0012605","ACCIDENT","ACCIDENT","GIRARD AND PLATINUM","",""
"05/22/2018","18:01","218CR0012606","MEDICAL - EMERGENCY","MEDICAL - EMERGENCY","2321 LOCUST ST","",""
"05/22/2018","18:24","218CR0012607","THEFT","THEFT, SHOPLIFT","3901 HARRISON AVE","",""
"05/22/2018","18:30","218CR0012608","ASSIST OTHER AGENCY","ASSIST OTHER AGENCY","I 90 MM 219 WB","",""
"05/22/2018","18:44","218CR0012609","FRAUD","FRAUD","225 N ALASKA","",""
"05/22/2018","18:46","218CR0012610","ALL OTHER","ALL OTHER","ROOSEVELT DRIVE","",""
"05/22/2018","18:49","218CR0012611","T/S","CRIMINAL CONTEMPT","CORNELL AND FARRAGUT","ARREST(s) MADE",""
"05/22/2018","18:56","218CR0012612","JUVENILE MISC","JUVENILE MISC","************","",""
"05/22/2018","19:35","218CR0012613","MEDICAL - EMERGENCY","MEDICAL - EMERGENCY","2124 ROBERTS","",""
"05/22/2018","19:38","218CR0012614","THEFT","THEFT","45 THREE BEARS DR","",""
"05/22/2018","19:45","218CR0012615","MC COMPLAINT","MC COMPLAINT","3110 ARGYLE","",""
"05/22/2018","20:15","218CR0012616","CIVIL STANDBY","CIVIL STANDBY","1960 HARRISON AVE","",""
"05/22/2018","20:25","218CR0012617","THEFT","THEFT","310 W FRONT ST","",""
"05/22/2018","20:42","218CR0012618","WELFARE CHECK","WELFARE CHECK","2971 TEAL #10","",""
"05/22/2018","20:46","218CR0012619","SUSPICIOUS ACTIVITY","SUSPICIOUS ACTIVITY","FRONT AND HARRISON","",""
"05/22/2018","21:09","218CR0012620","JUVENILE RUNAWAY","JUVENILE RUNAWAY","************","",""
"05/22/2018","21:32","218CR0012621","HARASSMENT","HARASSMENT","3745 HARRISON","",""
"05/22/2018","21:37","218CR0012622","T/S","T/S @ PARKING LOT AT BUTTE HIGH","PARKING LOT AT BUTTE HIGH","",""
"05/22/2018","22:28","218CR0012623","BUSINESS CHECK","BUSINESS CHECK","1370 HARRISON TOWN PUMP","",""
"05/22/2018","22:32","218CR0012624","SUSPICIOUS ACTIVITY","SUSPICIOUS ACTIVITY","CIVIC CENTER RD AND HARRISON","",""
"05/22/2018","22:40","218CR0012625","HIT AND RUN","HIT AND RUN, HIGHWAY FIXTURES","400 OXFORD NORTHWESTERN ENERGY","",""
"05/22/2018","22:47","218CR0012626","T/S","T/S @ 3100 BLK HARRISON","3100 BLK HARRISON","",""
"05/22/2018","23:00","218CR0012627","SUSPICIOUS ACTIVITY","SUSPICIOUS ACTIVITY","FRONT AND WYOMING","",""
"05/22/2018","23:02","218CR0012628","DISTURBANCE","DISTURBANCE","10 BLK W PARK","",""
"05/22/2018","23:15","218CR0012629","T/S","T/S","CIVIC CENTER RD AND HARRISON A","",""
"05/22/2018","23:24","218CR0012630","DISTURBANCE","OBSTRUCTING A PEACE OFFICER","10 BLK W PARK","ARREST(s) MADE",""
"05/22/2018","23:47","218CR0012631","T/S","T/S","GRANITE AND MONTANA","",""
"05/22/2018","23:49","218CR0012632","SUICIDE ATTEMPT/THREAT","SUICIDE ATTEMPT/THREAT","************","",""
"05/22/2018","23:54","218CR0012633","ATL","ATL","MT HIGHLAND DRIVE","",""
"05/23/2018","00:30","218CR0012634","T/S","T/S @ 600 BLK S MAIN","600 BLK S MAIN","",""
"05/23/2018","00:35","218CR0012635","UNWANTED PERSON","UNWANTED PERSON","************","",""
"05/23/2018","00:58","218CR0012636","SUSPICIOUS ACTIVITY","SUSPICIOUS ACTIVITY","119160 BATTLE RIDGE RD","",""
"05/23/2018","01:05","218CR0012637","T/S","T/S","MCKINLEY AND S DAKOTA","",""
"05/23/2018","01:11","218CR0012638","ALL OTHER","ALL OTHER","400 S CLARK ST JAMES ER","",""
"05/23/2018","01:24","218CR0012639","T/S","T/S","2942 MAMMOTH DR","",""
"05/23/2018","01:31","218CR0012640","ALL OTHER","ALL OTHER","2900 HARRSION/BUTTE PLAZA INN","",""
"05/23/2018","01:42","218CR0012641","T/S","T/S","CALHOUN AND MAIN","",""
"05/23/2018","02:12","218CR0012642","PROWLER","PROWLER","506 S DAKOTA","",""
"05/23/2018","02:13","218CR0012643","ALARM - BURGLARY","ALARM - BURGLARY","************","",""
"05/23/2018","03:02","218CR0012644","SUSPICIOUS ACTIVITY","SUSPICIOUS ACTIVITY","2900 BLK OREGON","",""
"05/23/2018","03:25","218CR0012645","SUSPICIOUS ACTIVITY","SUSPICIOUS ACTIVITY","THIRD AND UTAH","",""
"05/23/2018","03:34","218CR0012646","T/S","T/S","MONTANA AND IRON","",""
"05/23/2018","04:16","218CR0012647","T/S","T/S","2500 BLK S MAIN","",""
"05/23/2018","04:42","218CR0012648","ALARM - BURGLARY","ALARM - BURGLARY","************","",""
"05/23/2018","04:47","218CR0012649","HARASSMENT","HARASSMENT","EAST DRIVE // CENTER DRIVE","",""
"05/23/2018","05:28","218CR0012650","ASSAULT","ASSAULT","************","",""
 

BSB police report ending May 22, 2018

"05/21/2018","00:04","218CR0012426","UNKNOWN PROBLEM","UNKNOWN PROBLEM","EXCELSIOR AT IRON STREET","",""
"05/21/2018","01:44","218CR0012427","ASSIST OTHER AGENCY","ASSIST OTHER AGENCY","IDAHO AND PARK","",""
"05/21/2018","01:55","218CR0012428","TRAFFIC HAZARD","TRAFFIC HAZARD","ROWE RD AT GOLF COURSE","",""
"05/21/2018","03:00","218CR0012430","T/S","T/S @ 3700 BLK HARRISON AVE","3700 BLK HARRISON AVE","",""
"05/21/2018","03:14","218CR0012431","ALL OTHER","ALL OTHER","AREA NORTH OF THE AIRPORT","",""
"05/21/2018","03:43","218CR0012432","BUSINESS CHECK","BUSINESS CHECK","1370 HARRISON TOWN PUMP","",""
"05/21/2018","03:44","218CR0012433","SUSPICIOUS ACTIVITY","SUSPICIOUS ACTIVITY","PARK // MINING MUSEUM RD","",""
"05/21/2018","05:16","218CR0012434","UNWANTED PERSON","UNWANTED PERSON","************","",""
"05/21/2018","07:23","218CR0012435","THEFT","ASSAULT WITH BODILY FLUID","1301 HARRISON AVE","ARREST(s) MADE",""
"05/21/2018","07:55","218CR0012436","T/S","T/S @ MT HIGHLAND AND ELIZABETH WARR","MT HIGHLAND AND ELIZABETH WARR","",""
"05/21/2018","08:04","218CR0012437","THEFT","CRIMINAL MISCHIEF","1300 W PARK","",""
"05/21/2018","08:37","218CR0012438","ABANDONED VEHICLE","ABANDONED VEHICLE","213 N IDAHO","",""
"05/21/2018","08:39","218CR0012439","BURGLARY","BURGLARY, NON-RESIDENCE","155 MUSEUM WAY","",""
"05/21/2018","09:02","218CR0012440","CITIZEN AID","CITIZEN AID","BROADWAY AND JACKSON","",""
"05/21/2018","09:07","218CR0012441","ATL","ATL","OTTAWA AND SHERMAN","",""
"05/21/2018","09:21","218CR0012442","JUVENILE MISC","JUVENILE MISC","************","",""
"05/21/2018","09:30","218CR0012443","LED BUSINESS","LED BUSINESS","155 W GRANITE","",""
"05/21/2018","09:47","218CR0012444","ALL OTHER","ALL OTHER","815 EMPIRE","",""
"05/21/2018","10:01","218CR0012445","DETENTION BUSINESS","DETENTION BUSINESS","************","",""
"05/21/2018","10:03","218CR0012446","THEFT","THEFT FROM BUILDINGS","2218 GAYLORD","",""
"05/21/2018","10:11","218CR0012447","HARASSMENT","VIOLATION OF PROTECTION ORDER","151 DALY ST","",""
"05/21/2018","10:18","218CR0012448","CITIZEN AID","CITIZEN AID","2514 PARROT","",""
"05/21/2018","10:25","218CR0012449","WELFARE CHECK","WELFARE CHECK","50 W BROADWAY ST","",""
"05/21/2018","10:28","218CR0012450","CIVIL PAPER SERVICE","CIVIL PAPER SERVICE","324 N EXCELSIOR","",""
"05/21/2018","10:45","218CR0012451","JUVENILE MISC","JUVENILE MISC","************","",""
"05/21/2018","10:46","218CR0012452","MEDICAL - EMERGENCY","MEDICAL - EMERGENCY","614 W GALENA","",""
"05/21/2018","11:08","218CR0012453","DISTURBANCE","DISTURBANCE","5100 S WARREN #68","",""
"05/21/2018","11:15","218CR0012454","THEFT","THEFT","3700 HARRISON AVE","",""
"05/21/2018","11:23","218CR0012456","SUSPICIOUS ACTIVITY","SUSPICIOUS ACTIVITY","2700 BLK FLORAL","",""
"05/21/2018","11:26","218CR0012457","LOST OR STOLEN PROPERTY","THEFT, ALL OTHERS","483 STAGECOACH RAOD","",""
"05/21/2018","11:26","218CR0012458","DISTURBANCE","DISTURBANCE","10 BLK E MISSOULA","",""
"05/21/2018","11:28","218CR0012459","HARASSMENT","HARASSMENT","934 UTAH","",""
"05/21/2018","11:50","218CR0012460","DISTURBANCE","DISTURBANCE","3878 PAXSON AVE","",""
"05/21/2018","12:03","218CR0012461","HARASSMENT","HARASSMENT","700 E FRONT","",""
"05/21/2018","12:10","218CR0012462","THEFT","THEFT OF SERVICES","417 S MAIN","",""
"05/21/2018","12:13","218CR0012463","VANDALISM/CRIMINAL MISCHIEF","CRIMINAL MISCHIEF","743 S WYOMING","",""
"05/21/2018","12:21","218CR0012464","SUSPICIOUS ACTIVITY","SUSPICIOUS ACTIVITY","2000 BLK WALNUT","",""
"05/21/2018","12:38","218CR0012465","ANIMAL COMPLAINT","ANIMAL COMPLAINT","2220 S DRIVE","",""
"05/21/2018","12:41","218CR0012466","CIVIL PAPER SERVICE","CIVIL PAPER SERVICE","1760 HARRISON AVE","",""
"05/21/2018","12:42","218CR0012467","FIRE- GAS ODOR","FIRE- GAS ODOR","600 SHIELDS","",""
"05/21/2018","12:50","218CR0012468","SUSPICIOUS ACTIVITY","SUSPICIOUS ACTIVITY","1205 S MONTANA","",""
"05/21/2018","13:06","218CR0012469","ALARM - BURGLARY","ALARM - BURGLARY","************","",""
"05/21/2018","13:16","218CR0012470","THEFT","THEFT","207 E PACIFIC","",""
"05/21/2018","13:19","218CR0012471","WELFARE CHECK","WELFARE CHECK","BURLINGTON AND WHITEWAY","",""
"05/21/2018","13:35","218CR0012472","WELFARE CHECK","WELFARE CHECK","514 W PARK","",""
"05/21/2018","13:41","218CR0012473","SUSPICIOUS ACTIVITY","SUSPICIOUS ACTIVITY","COBBAN AND WYOMING","",""
"05/21/2018","13:56","218CR0012475","DETENTION BUSINESS","DETENTION BUSINESS","************","",""
"05/21/2018","14:16","218CR0012476","SUSPICIOUS ACTIVITY","SUSPICIOUS ACTIVITY","EXCELSIOR AVE AND MERCURY ST","",""
"05/21/2018","14:23","218CR0012477","ALARM - FIRE","ALARM - FIRE","10 S IDAHO","",""
"05/21/2018","14:28","218CR0012478","SUSPICIOUS ACTIVITY","OUT OF JURISDICTION - MISD","CLARK AND MERCURY","",""
"05/21/2018","14:35","218CR0012479","ALL OTHER","ALL OTHER","CLARKS PARK","",""
"05/21/2018","14:44","218CR0012480","LOST OR STOLEN PROPERTY","THEFT LOST OR MISLAID PROPERTY","22 W FRONT ST","",""
"05/21/2018","15:00","218CR0012481","PARKING COMPLAINT","PARKING COMPLAINT","217 W PARK","",""
"05/21/2018","15:04","218CR0012482","FRAUD","FORGERY/COUNTERFEIT","531 S MONTANA","",""
"05/21/2018","15:09","218CR0012483","INTOXICATED PERSON","INTOXICATED PERSON","531 S MONTANA","",""
"05/21/2018","15:25","218CR0012484","HIT AND RUN","FAIL TO ID, SELF AND VEHICLE","2051 HARRISON AVE","",""
"05/21/2018","15:58","218CR0012485","T/S","T/S","FARRELL ST AND ADAMS ST","",""
"05/21/2018","16:04","218CR0012486","THEFT","THEFT","709 S UTAH HILLTOP MARKET","",""
"05/21/2018","16:04","218CR0012487","ASSIST OTHER AGENCY","POSSESSION OF DANGEROUS DRUGS","207 W PARK #18","ARREST(s) MADE",""
"05/21/2018","16:05","218CR0012488","THEFT","THEFT, SHOPLIFT","3501 HARRISON AVE","",""
"05/21/2018","16:21","218CR0012489","SUICIDE ATTEMPT/THREAT","SUICIDE ATTEMPT/THREAT","************","",""
"05/21/2018","16:22","218CR0012490","T/S","T/S","CASEY ST AND KAW AVE","",""
"05/21/2018","16:25","218CR0012491","ALARM - BURGLARY","ALARM - BURGLARY","************","",""
"05/21/2018","16:29","218CR0012492","JUVENILE MISC","JUVENILE MISC","************","",""
"05/21/2018","16:50","218CR0012493","ANIMAL COMPLAINT","ANIMAL COMPLAINT","ROWE ROAD // DEWEY BLVD","",""
"05/21/2018","16:56","218CR0012494","SUSPICIOUS ACTIVITY","ABANDONED VEHICLE","PINE ST AND HOWARD ST","",""
"05/21/2018","17:01","218CR0012495","FRAUD","DECEPTIVE PRACT - CREDIT CARD","400 E PARK","",""
"05/21/2018","17:08","218CR0012496","T/S","SPEEDING","FARRELL AND HOWARD","",""
"05/21/2018","17:28","218CR0012497","T/S","T/S","MERCURY AND MONTANA","",""
"05/21/2018","17:52","218CR0012498","ATL","ATL","8 MEADOWVIEW DRIVE","",""
"05/21/2018","18:03","218CR0012499","THEFT","THEFT","2400 ST ANN","",""
"05/21/2018","18:04","218CR0012500","WELFARE CHECK","WELFARE CHECK","MAIN ST AND PLATINUM ST","",""
"05/21/2018","18:18","218CR0012501","SUSPICIOUS ACTIVITY","SUSPICIOUS ACTIVITY","1810 ELM ST","",""
"05/21/2018","18:39","218CR0012502","INTOXICATED PERSON","INTOXICATED PERSON","DEWEY BLVD AND HARRISON AVE","",""
"05/21/2018","19:10","218CR0012503","DISTURBANCE","DISTURBANCE","2900 S MONTANA #13","",""
"05/21/2018","19:25","218CR0012504","WANTED PERSON","WANTED PERSON","************","",""
"05/21/2018","19:35","218CR0012505","TRAFFIC HAZARD","TRAFFIC HAZARD","1437 HOBSON","",""
"05/21/2018","19:38","218CR0012506","HIT AND RUN","HIT AND RUN, UNATTENDED VEHICL","GALENA & WASHINGTON","",""
"05/21/2018","19:41","218CR0012507","T/S","T/S","COBBAN ST AND WILSON ST","",""
"05/21/2018","19:46","218CR0012508","BURGLARY","BURGLARY","533 S DAKOTA","",""
"05/21/2018","19:53","218CR0012509","DISTURBANCE","DISTURBANCE","FATHER SHEEHAN PARK","",""
"05/21/2018","20:30","218CR0012510","ALL OTHER","ALL OTHER","100 CATTLE DRIVE","",""
"05/21/2018","20:50","218CR0012511","ATL","ATL","","",""
"05/21/2018","20:51","218CR0012512","FRAUD","FRAUD","225 N ALASKA","",""
"05/21/2018","20:57","218CR0012513","DISTURBANCE","DISTURBANCE","JACKSON AND WOOLMAN","",""
"05/21/2018","21:15","218CR0012514","THEFT","THEFT, SHOPLIFT","2500 MASSACHUSETTS AVE","",""
"05/21/2018","21:25","218CR0012515","DISTURBANCE","DISTURBANCE","3541 WILLOUGHBY","",""
"05/21/2018","21:44","218CR0012516","ALL OTHER","ALL OTHER","1307 SILVERBOW HOMES","",""
"05/21/2018","21:58","218CR0012517","DISTURBANCE","DISTURBANCE","611 W PARK ST","",""
"05/21/2018","22:20","218CR0012518","SUSPICIOUS ACTIVITY","SUSPICIOUS ACTIVITY","501 W GRANITE ST MUELLER APTS","",""
"05/21/2018","22:33","218CR0012519","ALL OTHER","ALL OTHER","1018 ANTIMONY ST APT B","",""
"05/21/2018","23:01","218CR0012520","ATL","ATL","","",""
"05/21/2018","23:04","218CR0012521","PARKING COMPLAINT","PARKING COMPLAINT","10 BLK N JACKSON","",""
"05/21/2018","23:11","218CR0012522","ALARM - BURGLARY","ALARM - BURGLARY","************","",""
"05/21/2018","23:28","218CR0012523","ASSAULT","ASSAULT, SIMPLE","50 W BROADWAY ST #406","",""
"05/21/2018","23:34","218CR0012524","MEDICAL - EMERGENCY","MEDICAL - EMERGENCY","3400 HILL AVE APT # 1305","",""
"05/21/2018","23:40","218CR0012525","HIT AND RUN","AGGRAVATED DUI","900 BLK LEWISHON","ARREST(s) MADE",""
"05/22/2018","00:03","218CR0012526","T/S","DUI - (REFUSAL)","900 BLK ANTIMONY ST","ARREST(s) MADE",""
"05/22/2018","00:26","218CR0012527","SUSPICIOUS ACTIVITY","SUSPICIOUS ACTIVITY","MONTANA AND JOSETTE","",""
"05/22/2018","00:53","218CR0012528","ASSAULT","ASSAULT","************","",""
"05/22/2018","01:37","218CR0012529","TRAFFIC HAZARD","TRAFFIC HAZARD","I15 MM 125 NB","",""
"05/22/2018","01:58","218CR0012530","ASSIST OTHER AGENCY","ASSIST OTHER AGENCY","MAIN AND QUARTZ ST","",""
"05/22/2018","02:04","218CR0012531","T/S","T/S @ GEORGE AND OREGON","GEORGE AND OREGON","",""
"05/22/2018","02:29","218CR0012532","BUSINESS CHECK","CRIMINAL CONTEMPT","1370 HARRISON AVE","ARREST(s) MADE",""
"05/22/2018","02:47","218CR0012533","DISTURBANCE","DISTURBANCE","1208 N MAIN","",""
"05/22/2018","03:12","218CR0012534","SUSPICIOUS ACTIVITY","SUSPICIOUS ACTIVITY","I 90 MM 213 214 WB","",""
"05/22/2018","04:09","218CR0012535","MEDICAL - EMERGENCY","MEDICAL - EMERGENCY","1515 OREGON AVE APT 502","",""
"05/22/2018","04:31","218CR0012536","SUICIDE ATTEMPT/THREAT","SUICIDE ATTEMPT/THREAT","************","",""
"05/22/2018","04:41","218CR0012537","SUSPICIOUS ACTIVITY","SUSPICIOUS ACTIVITY","3751 WYNNE AVE","",""
"05/22/2018","05:03","218CR0012538","T/S","T/S @ MEADOWLARK AND PAXSON","MEADOWLARK AND PAXSON","",""
"05/22/2018","07:01","218CR0012540","RESTRAINING ORDER VIOLATION","RESTRAINING ORDER VIOLATION","************","",""
"05/22/2018","07:27","218CR0012541","CIVIL PAPER SERVICE","CIVIL PAPER SERVICE","430 COLORADO","",""
"05/22/2018","07:36","218CR0012542","CIVIL PAPER SERVICE","CIVIL PAPER SERVICE","324 N EXCELSIOR","",""
"05/22/2018","07:37","218CR0012543","CIVIL PAPER SERVICE","CIVIL PAPER SERVICE","520 N WYOMING ST","",""
"05/22/2018","07:38","218CR0012544","MEDICAL - EMERGENCY","MEDICAL - EMERGENCY","614 W GALENA","",""
"05/22/2018","07:40","218CR0012545","WELFARE CHECK","WELFARE CHECK","2024 S ARIZONA","",""
"05/22/2018","07:46","218CR0012546","T/S","T/S @ 3300 BLK BURLINGTON","3300 BLK BURLINGTON","",""
"05/22/2018","07:59","218CR0012548","CIVIL PAPER SERVICE","CIVIL PAPER SERVICE","712 1/2 W GALENA ST","",""
 

BSB police report for May 21, 2018

"05/18/2018","00:04","218CR0012147","SUSPICIOUS ACTIVITY","SUSPICIOUS ACTIVITY","CIVIC CENTER PARKING LOT","",""
"05/18/2018","00:16","218CR0012148","SUSPICIOUS ACTIVITY","SUSPICIOUS ACTIVITY","ELM AND WILSON","",""
"05/18/2018","00:25","218CR0012149","SUSPICIOUS ACTIVITY","DISORDERLY CONDUCT","1324 HARRISON","",""
"05/18/2018","01:08","218CR0012150","T/S","T/S","MONTANA AND FRONT ST","",""
"05/18/2018","02:17","218CR0012152","BUSINESS CHECK","BUSINESS CHECK","531 S MONTANA","",""
"05/18/2018","02:19","218CR0012153","UNWANTED PERSON","UNWANTED PERSON","************","",""
"05/18/2018","02:28","218CR0012154","SUSPICIOUS ACTIVITY","SUSPICIOUS ACTIVITY","1653 HARRISON","",""
"05/18/2018","04:43","218CR0012155","SUSPICIOUS ACTIVITY","SUSPICIOUS ACTIVITY","10 BLK E GRANITE","",""
"05/18/2018","05:25","218CR0012156","UNWANTED PERSON","UNWANTED PERSON","************","",""
"05/18/2018","05:45","218CR0012157","ALL OTHER","ALL OTHER","2031 GAYLORD","",""
"05/18/2018","06:34","218CR0012158","ASSAULT","ASSAULT, SIMPLE","LEGGAT APTS/50 W BROADWAY","ARREST(s) MADE",""
"05/18/2018","06:37","218CR0012159","CIVIL PAPER SERVICE","CIVIL PAPER SERVICE","9 N MAIN","",""
"05/18/2018","06:42","218CR0012160","SUSPICIOUS ACTIVITY","SUSPICIOUS ACTIVITY","CENTENNIAL AND EXCELSIOR","",""
"05/18/2018","07:14","218CR0012161","HARASSMENT","HARASSMENT","119152 BATTLE RIDGE RD","",""
"05/18/2018","07:41","218CR0012162","ANIMAL COMPLAINT","ANIMAL COMPLAINT","1463 EASY ST","",""
"05/18/2018","08:14","218CR0012163","T/S","T/S @ FARRELL AND STUART","FARRELL AND STUART","",""
"05/18/2018","08:23","218CR0012164","SUSPICIOUS ACTIVITY","POSSESSION OF DANGEROUS DRUGS","MERCURY AND WYOMING","ARREST(s) MADE",""
"05/18/2018","08:46","218CR0012165","T/S","T/S","BROWNS GULCH RD","",""
"05/18/2018","09:12","218CR0012166","CIVIL PAPER SERVICE","CIVIL PAPER SERVICE","3939 HARRISON AVE","",""
"05/18/2018","09:22","218CR0012167","DETENTION BUSINESS","DETENTION BUSINESS","************","",""
"05/18/2018","09:47","218CR0012168","SUSPICIOUS ACTIVITY","SUSPICIOUS ACTIVITY","58 W PARK","",""
"05/18/2018","09:50","218CR0012169","HARASSMENT","HARASSMENT","1021 WOOLMAN","",""
"05/18/2018","10:07","218CR0012170","WANTED PERSON","WANTED PERSON","************","",""
"05/18/2018","10:11","218CR0012171","SUSPICIOUS ACTIVITY","SUSPICIOUS ACTIVITY","I 15 MM 124 N BND","",""
"05/18/2018","10:42","218CR0012172","LED BUSINESS","LED BUSINESS","BSB GUN RANGE","",""
"05/18/2018","10:54","218CR0012173","FRAUD","FRAUD","1045 CONRAD DR 54","",""
"05/18/2018","11:10","218CR0012174","SUSPICIOUS ACTIVITY","SUSPICIOUS ACTIVITY","303 W DALY PISZERS PALACE","",""
"05/18/2018","11:19","218CR0012175","LED BUSINESS","LED BUSINESS","155 W GRANITE","",""
"05/18/2018","11:29","218CR0012176","FRAUD","FRAUD","1880 HARRISON AVE","",""
"05/18/2018","11:51","218CR0012177","SUICIDE ATTEMPT/THREAT","SUICIDE ATTEMPT/THREAT","************","",""
"05/18/2018","12:00","218CR0012178","T/S","T/S","155 W GRANITE","",""
"05/18/2018","12:09","218CR0012179","ATL","ATL","56 E MERCURY","",""
"05/18/2018","12:10","218CR0012180","INFORMATION ONLY","INFORMATION ONLY","2900 ELIZABETH WARREN AVE","",""
"05/18/2018","12:30","218CR0012182","BURGLARY","BURGLARY","1375 JOY LANE","",""
"05/18/2018","12:56","218CR0012184","DISTURBANCE","DISTURBANCE","1900 S MONTANA ST","",""
"05/18/2018","13:06","218CR0012185","FRAUD","FORGERY/COUNTERFEIT","2100 HARRISON AVE","ARREST(s) MADE",""
"05/18/2018","13:07","218CR0012186","FRAUD","FORGERY/COUNTERFEIT","819 S MAIN","",""
"05/18/2018","13:09","218CR0012187","SUSPICIOUS ACTIVITY","POSSESS DRUG PARAPHERNALIA","1800 HARRISON/GLACIER BANK","ARREST(s) MADE",""
"05/18/2018","13:19","218CR0012188","CIVIL PAPER SERVICE","CIVIL PAPER SERVICE","65 W GOLD","",""
"05/18/2018","13:21","218CR0012189","THEFT","THEFT","319 W DALY","",""
"05/18/2018","13:47","218CR0012190","RESTRAINING ORDER VIOLATION","VIOLATION OF PROTECTION ORDER","1215 N EXCELSIOR","",""
"05/18/2018","13:56","218CR0012192","SUSPICIOUS ACTIVITY","SUSPICIOUS ACTIVITY","58 W PARK","",""
"05/18/2018","14:01","218CR0012193","MEDICAL - EMERGENCY","MEDICAL - EMERGENCY","407 SILVER BOW HOMES","",""
"05/18/2018","14:06","218CR0012194","ANIMAL COMPLAINT","ANIMAL COMPLAINT","I15 EB MM 129","",""
"05/18/2018","14:16","218CR0012195","JUVENILE MISC","JUVENILE MISC","************","",""
"05/18/2018","14:22","218CR0012196","T/S","T/S @ PORTER ST AND AMHERST ST","PORTER ST AND AMHERST ST","",""
"05/18/2018","14:49","218CR0012197","THEFT","THEFT","118 N IDAHO","",""
"05/18/2018","14:57","218CR0012198","T/S","T/S @ FRONT AND OREGON","FRONT AND OREGON","",""
"05/18/2018","15:13","218CR0012199","T/S","T/S @ FARRELL AND HOWARD","FARRELL AND HOWARD","",""
"05/18/2018","15:35","218CR0012200","DISTURBANCE","DISTURBANCE","220 CURTIS","",""
"05/18/2018","15:37","218CR0012201","UNKNOWN PROBLEM","UNKNOWN PROBLEM","1350 RACCOON WAY","",""
"05/18/2018","15:48","218CR0012202","FRAUD","FRAUD","225 N ALASKA","",""
"05/18/2018","15:55","218CR0012203","ALL OTHER","ALL OTHER","2600 GRAND AVE","",""
"05/18/2018","16:42","218CR0012204","THEFT","THEFT","537 1/2 S COLORADO","",""
"05/18/2018","16:43","218CR0012205","PARKING COMPLAINT","PARKING COMPLAINT","846 W COPPER","",""
"05/18/2018","16:44","218CR0012206","INFORMATION ONLY","INFORMATION ONLY","910 EVANS #B7","",""
"05/18/2018","16:53","218CR0012207","SUICIDE ATTEMPT/THREAT","SUICIDE ATTEMPT/THREAT","************","",""
"05/18/2018","17:09","218CR0012208","ASSAULT","ASSAULT, SIMPLE","108 SILVERBOW HOMES","",""
"05/18/2018","17:14","218CR0012209","ALL OTHER","ALL OTHER","520 HOLMES AVE","",""
"05/18/2018","17:20","218CR0012210","THEFT","THEFT","3344 SANDERS ST","",""
"05/18/2018","17:23","218CR0012211","ALL OTHER","ALL OTHER","2500 SHERMAN AVE","",""
"05/18/2018","17:28","218CR0012212","T/S","NO LIABILITY INSURANCE IN EFF.","HARRISON AND WHITE BLVD","",""
"05/18/2018","17:52","218CR0012213","JUVENILE MISC","JUVENILE MISC","************","",""
"05/18/2018","18:02","218CR0012214","WELFARE CHECK","WELFARE CHECK","805 SILVERBOW HOMES","",""
"05/18/2018","18:26","218CR0012215","ALL OTHER","ALL OTHER","11 S EXCELSIOR","",""
"05/18/2018","18:29","218CR0012216","TRAFFIC","TRAFFIC","831 WAUKESHA","",""
"05/18/2018","18:48","218CR0012217","MEDICAL - EMERGENCY","MEDICAL - EMERGENCY","1233 GRIZZLY TR","",""
"05/18/2018","18:54","218CR0012218","MC COMPLAINT","MC COMPLAINT","ADAMS AND PINE","",""
"05/18/2018","19:01","218CR0012219","MC COMPLAINT","MC COMPLAINT","130 WALDRON DR","",""
"05/18/2018","19:08","218CR0012220","FRAUD","FORGERY/COUNTERFEIT","531 S MONTANA","",""
"05/18/2018","19:10","218CR0012221","ALARM - BURGLARY","ALARM - BURGLARY","************","",""
"05/18/2018","20:01","218CR0012222","ASSAULT","ASSAULT","************","",""
"05/18/2018","20:12","218CR0012223","JUVENILE MISC","JUVENILE MISC","************","",""
"05/18/2018","20:16","218CR0012224","ALARM - BURGLARY","ALARM - BURGLARY","************","",""
"05/18/2018","20:30","218CR0012225","ALL OTHER","ALL OTHER","62 W BROADWAY","",""
"05/18/2018","20:45","218CR0012226","MEDICAL - EMERGENCY","MEDICAL - EMERGENCY","1125 S MAIN","",""
"05/18/2018","20:50","218CR0012227","MISSING PERSON","MISSING PERSON","************","",""
"05/18/2018","21:16","218CR0012228","ALL OTHER","PARENTING INTERFERENCE","122193 NISSLER ROAD","",""
"05/18/2018","21:17","218CR0012229","CRIMINAL TRESPASS","CRIMINAL TRESPASS","ANSELMO MINE YARD","",""
"05/18/2018","21:30","218CR0012230","FIRE- GAS ODOR","FIRE- GAS ODOR","1626 LOWELL AVE APT1","",""
"05/18/2018","22:01","218CR0012231","T/S","T/S","HARRISON AND HOLMES","",""
"05/18/2018","22:14","218CR0012232","T/S","DRIVING W/OUT VALID D/L","ELIZABETH WARREN AT WHITE WY","",""
"05/18/2018","22:21","218CR0012233","T/S","T/S","HARRISON AND MARCIA","",""
"05/18/2018","22:48","218CR0012234","T/S","T/S","AMHERST AND MEADE","",""
"05/18/2018","22:55","218CR0012235","MEDICAL - ASSIST","MEDICAL - ASSIST","************","",""
"05/18/2018","22:59","218CR0012237","T/S","NO LIABILITY INSURANCE IN EFF.","600 BLK S MAIN ST","",""
"05/18/2018","22:59","218CR0012236","BUSINESS CHECK","BUSINESS CHECK","531 S MONTANA","",""
"05/18/2018","23:05","218CR0012238","SUSPICIOUS ACTIVITY","SUSPICIOUS ACTIVITY","1640 GRAND AVE","",""
"05/18/2018","23:19","218CR0012239","DISTURBANCE","DISTURBANCE","400 S CLARK ST","",""
"05/18/2018","23:46","218CR0012240","ATL","ATL","I90 MM 131 NB","",""
"05/18/2018","23:50","218CR0012241","JUVENILE MISC","JUVENILE MISC","************","",""
"05/19/2018","00:43","218CR0012242","T/S","T/S","SECOND AND PLACER ST","",""
"05/19/2018","01:23","218CR0012243","SUSPICIOUS ACTIVITY","SUSPICIOUS ACTIVITY","122000 BROWNS GULCH RD","",""
"05/19/2018","01:40","218CR0012244","LOST OR STOLEN PROPERTY","LOST OR STOLEN PROPERTY","122000 BROWNS GULCH RD","",""
"05/19/2018","02:05","218CR0012245","DISTURBANCE","DISTURBANCE","2 E GALENA","",""
"05/19/2018","02:11","218CR0012246","ALARM - BURGLARY","ALARM - BURGLARY","************","",""
"05/19/2018","02:29","218CR0012247","SUSPICIOUS ACTIVITY","SUSPICIOUS ACTIVITY","DUNDEE ST AND FLORENCE AVE","",""
"05/19/2018","02:36","218CR0012248","BUSINESS CHECK","BUSINESS CHECK","1370 HARRISON","",""
"05/19/2018","02:42","218CR0012249","BUSINESS CHECK","BUSINESS CHECK","531 S MONTANA","",""
"05/19/2018","02:45","218CR0012250","MEDICAL - EMERGENCY","MEDICAL - EMERGENCY","2104 UTAH","",""
"05/19/2018","03:26","218CR0012251","T/S","DRIVE WHILE SUSP. OR REVOKED","ELIZABETH WARREN AND HARRISON","ARREST(s) MADE",""
"05/19/2018","03:35","218CR0012252","INTOXICATED PERSON","INTOXICATED PERSON","531 S MONTANA","",""
"05/19/2018","03:39","218CR0012253","T/S","OBSTRUCTING JUSTICE","3300 BLK BUSCH ST","",""
"05/19/2018","04:47","218CR0012254","SEXUAL ASSAULT","SEXUAL ASSAULT","************","",""
"05/19/2018","07:33","218CR0012255","DETENTION BUSINESS","DETENTION BUSINESS","************","",""
"05/19/2018","07:50","218CR0012256","DISTURBANCE","DISTURBANCE","1111 A ST","",""
"05/19/2018","09:23","218CR0012257","DRUGS","DRUGS","************","",""
"05/19/2018","09:45","218CR0012258","MEDICAL - EMERGENCY","MEDICAL - EMERGENCY","403 W QUARTZ","",""
"05/19/2018","09:46","218CR0012259","T/S","T/S","3000 BLK FLORAL","",""
"05/19/2018","10:07","218CR0012260","UNWANTED PERSON","UNWANTED PERSON","************","",""
"05/19/2018","10:18","218CR0012261","LED BUSINESS","LED BUSINESS","UPTOWN FOOT PATROL","",""
"05/19/2018","10:24","218CR0012262","CIVIL PAPER SERVICE","CIVIL PAPER SERVICE","1437 HOBSON AVE","",""
"05/19/2018","10:36","218CR0012263","LED BUSINESS","LED BUSINESS","400 S CLARK ST","",""
"05/19/2018","11:04","218CR0012264","CRIMINAL TRESPASS","CRIMINAL TRESPASS","2880 MEADOWLARK LANE","",""
"05/19/2018","11:19","218CR0012265","THEFT","THEFT FROM MOTOR VEHICLE","2227 HARRISON AVE","",""
"05/19/2018","11:21","218CR0012266","RESTRAINING ORDER VIOLATION","VIOLATION OF PROTECTION ORDER","1801 GAYLORD","ARREST(s) MADE",""
"05/19/2018","11:52","218CR0012267","MEDICAL - EMERGENCY","MEDICAL - EMERGENCY","2205 OTTAWA","",""
"05/19/2018","11:56","218CR0012268","WELFARE CHECK","WELFARE CHECK","5005 WYNNE AVE","",""
"05/19/2018","12:27","218CR0012269","CIVIL PAPER SERVICE","CIVIL PAPER SERVICE","155 W QUARTZ","",""
"05/19/2018","12:30","218CR0012270","THEFT","THEFT, SHOPLIFT","1301 HARRISON STOKES MARKET","",""
"05/19/2018","12:33","218CR0012271","FOUND PROPERTY","FOUND PROPERTY","************","",""
"05/19/2018","12:49","218CR0012272","THEFT","THEFT","1008 HORNET","",""
"05/19/2018","12:50","218CR0012273","MEDICAL - EMERGENCY","MEDICAL - EMERGENCY","155 W QUARTZ","",""
"05/19/2018","12:55","218CR0012274","T/S","T/S","MAIN AND COPPER","",""
"05/19/2018","13:40","218CR0012275","LED BUSINESS","LED BUSINESS","BSB GUN RANGE","",""
"05/19/2018","14:34","218CR0012276","UNWANTED PERSON","UNWANTED PERSON","************","",""
"05/19/2018","14:42","218CR0012277","ALL OTHER","ALL OTHER","2100 CORNELL","",""
"05/19/2018","14:46","218CR0012278","OPEN BUILDING","OPEN BUILDING","935 S MONTANA","",""
"05/19/2018","14:52","218CR0012279","ANIMAL COMPLAINT","ANIMAL COMPLAINT","3030 CARTER","",""
"05/19/2018","14:57","218CR0012280","WELFARE CHECK","WELFARE CHECK","1024 WAUKESHA","",""
"05/19/2018","14:59","218CR0012281","DISTURBANCE","DISTURBANCE","2624 EDWARDS","",""
"05/19/2018","15:19","218CR0012282","THEFT","THEFT, SHOPLIFT","310 W FRONT ST","",""
"05/19/2018","15:23","218CR0012283","MEDICAL - EMERGENCY","MEDICAL - EMERGENCY","3215 SAINT ANN ST","",""
"05/19/2018","15:29","218CR0012284","MEDICAL - EMERGENCY","MEDICAL - EMERGENCY","915 WAUKESHA","",""
"05/19/2018","15:34","218CR0012285","ASSIST OTHER AGENCY","ASSIST OTHER AGENCY","CONTINENTAL AND TROTTER","",""
"05/19/2018","15:40","218CR0012286","THEFT","THEFT","402 S MONTANA #9","",""
"05/19/2018","15:45","218CR0012287","ALL OTHER","ALL OTHER","225 N ALASKA ST","",""
"05/19/2018","15:49","218CR0012288","ACCIDENT","ACCIDENT","1832 FARRAGUT","",""
"05/19/2018","15:59","218CR0012289","INTOXICATED PERSON","INTOXICATED PERSON","155 W GRANITE","",""
"05/19/2018","16:00","218CR0012290","SUSPICIOUS ACTIVITY","SUSPICIOUS ACTIVITY","305 N WASHINGTON APT B","",""
"05/19/2018","16:50","218CR0012291","INTOXICATED PERSON","INTOXICATED PERSON","100 BLK W PARK ST","",""
"05/19/2018","17:21","218CR0012292","T/S","T/S","MAIN AND AGATE","",""
"05/19/2018","17:26","218CR0012293","WELFARE CHECK","WELFARE CHECK","5005 WYNNE","",""
"05/19/2018","17:33","218CR0012294","ASSAULT","ASSAULT","************","",""
"05/19/2018","17:53","218CR0012295","T/S","T/S","PLATINUM AND MONTANA","",""
"05/19/2018","18:00","218CR0012296","CITIZEN AID","CITIZEN AID","GIRARD AND DIAMOND","",""
"05/19/2018","18:09","218CR0012297","T/S","T/S","PARK ST AND EXCELSIOR AVE","",""
"05/19/2018","18:14","218CR0012298","SUSPICIOUS ACTIVITY","SUSPICIOUS ACTIVITY","106 COTTAGE LOOP","",""
"05/19/2018","18:24","218CR0012300","T/S","T/S","MAIN ST AND SUMMIT ST","",""
"05/19/2018","18:24","218CR0012299","T/S","T/S @ ","","",""
"05/19/2018","18:32","218CR0012301","SUICIDE ATTEMPT/THREAT","SUICIDE ATTEMPT/THREAT","************","",""
"05/19/2018","18:46","218CR0012302","UNKNOWN PROBLEM","UNKNOWN PROBLEM","1727 PHILLIPS AVE","",""
"05/19/2018","18:47","218CR0012303","T/S","T/S","HARRISON AND CIVIC CENTER RD","",""
"05/19/2018","19:10","218CR0012304","ALL OTHER","ALL OTHER","916 S COLORADO","",""
"05/19/2018","19:28","218CR0012305","STOLEN VEHICLE","MOTOR VEHICLE THEFT","323 S MONTANA #6","",""
"05/19/2018","19:29","218CR0012306","T/S","T/S","GRAND AND THOMAS","",""
"05/19/2018","20:06","218CR0012307","T/S","T/S","MAIN AND GALENA","",""
"05/19/2018","20:13","218CR0012308","T/S","T/S","400 ROW SILVER BOW HOMES","",""
"05/19/2018","20:27","218CR0012309","T/S","T/S","HARRISON AVE AND GEORGE ST","",""
"05/19/2018","20:27","218CR0012310","T/S","T/S","","",""
"05/19/2018","20:42","218CR0012311","MEDICAL - EMERGENCY","MEDICAL - EMERGENCY","2601 AMHERST","",""
"05/19/2018","20:56","218CR0012312","WELFARE CHECK","WELFARE CHECK","5005 WYNNE AVE","",""
"05/19/2018","21:01","218CR0012313","SUSPICIOUS ACTIVITY","SUSPICIOUS ACTIVITY","3450 HANCOCK","",""
"05/19/2018","22:06","218CR0012314","DISTURBANCE-NOISE","DISTURBANCE-NOISE","2513 PINE ST","",""
"05/19/2018","22:17","218CR0012315","FIRE - OTHER","FIRE - OTHER","2310 LOCUST","",""
"05/19/2018","22:19","218CR0012316","TRAFFIC HAZARD","TRAFFIC HAZARD","1601 HARRISON AVE","",""
"05/19/2018","22:44","218CR0012317","THEFT","THEFT","916 S COLORADO ST","",""
"05/19/2018","22:53","218CR0012318","UNKNOWN PROBLEM","UNKNOWN PROBLEM","402 S MONTANA APT #9","",""
"05/19/2018","23:08","218CR0012319","DISTURBANCE","DISTURBANCE","10 N CLARK","",""
"05/19/2018","23:23","218CR0012320","T/S","T/S","3500 BLK HARRISON AVE","",""
"05/19/2018","23:34","218CR0012321","T/S","T/S @ CHICAGO AND SHEILDS","CHICAGO AND SHEILDS","",""
"05/19/2018","23:43","218CR0012322","T/S","DRIVE WHILE SUSP. OR REVOKED","1800 BLK HARRISON","",""
"05/19/2018","23:47","218CR0012323","ALL OTHER","ALL OTHER","2300 S MONTANA ST","",""
"05/20/2018","00:07","218CR0012324","T/S","T/S @ GRAND AND CONTINENTAL","GRAND AND CONTINENTAL","",""
"05/20/2018","00:09","218CR0012325","SUSPICIOUS ACTIVITY","SUSPICIOUS ACTIVITY","1215 N EXCELSIOR","",""
"05/20/2018","00:43","218CR0012326","SUSPICIOUS ACTIVITY","SUSPICIOUS ACTIVITY","1115 E SECOND ST","",""
"05/20/2018","00:47","218CR0012327","ALARM - BURGLARY","ALARM - BURGLARY","************","",""
"05/20/2018","00:58","218CR0012328","T/S","T/S","MONTANA ST AND ALUMINUM ST","",""
"05/20/2018","01:01","218CR0012329","T/S","T/S","HOLLAND ST AND MONTANA ST","",""
"05/20/2018","01:17","218CR0012330","T/S","T/S","HOLLAND ST AND MONTANA ST","",""
"05/20/2018","01:19","218CR0012331","SUSPICIOUS ACTIVITY","SUSPICIOUS ACTIVITY","1115 E SECOND","",""
"05/20/2018","01:25","218CR0012332","WANTED PERSON","CRIMINAL CONTEMPT","1370 HARRISON","ARREST(s) MADE",""
"05/20/2018","01:30","218CR0012333","W/PRISONER","FAILURE TO DISPERSE","1 W PARK ST","ARREST(s) MADE",""
"05/20/2018","01:46","218CR0012334","T/S","T/S @ 300 BLK ARIZONA ST","300 BLK ARIZONA ST","",""
"05/20/2018","02:19","218CR0012335","BUSINESS CHECK","BUSINESS CHECK","531 S MONTANA","",""
"05/20/2018","02:25","218CR0012336","CITIZEN AID","CITIZEN AID","10 BLK W QUARTZ","",""
"05/20/2018","02:33","218CR0012337","SUSPICIOUS ACTIVITY","SUSPICIOUS ACTIVITY","3440 HARRISON AVE","",""
"05/20/2018","02:47","218CR0012338","DISTURBANCE","PFMA - REASONABLE APPREHENSION","508 W GALENA","ARREST(s) MADE",""
"05/20/2018","02:51","218CR0012339","SUSPICIOUS ACTIVITY","SUSPICIOUS ACTIVITY","AMHERST AND MEAD","",""
"05/20/2018","02:52","218CR0012340","TRAFFIC","TRAFFIC","700 BLK PLACER ST","",""
"05/20/2018","03:31","218CR0012341","T/S","HABITUAL OFFENDER OPER. VEH","HOLMES AND KENNEDY","ARREST(s) MADE",""
"05/20/2018","03:42","218CR0012342","DISTURBANCE","DISTURBANCE","2900 HARRISON AVE","",""
"05/20/2018","05:15","218CR0012343","THEFT","THEFT","1370 HARRISON AVE","",""
"05/20/2018","05:25","218CR0012344","MEDICAL - EMERGENCY","MEDICAL - EMERGENCY","12 ONIEL APT B","",""
"05/20/2018","05:56","218CR0012345","ASSIST OTHER AGENCY","ASSIST OTHER AGENCY","519 N WYOMING ST","",""
"05/20/2018","06:42","218CR0012346","THEFT","THEFT","916 COLORADO","",""
"05/20/2018","07:05","218CR0012347","T/S","NO LIABILITY INSURANCE IN EFF.","GARLAND AND HARRISON","",""
"05/20/2018","07:33","218CR0012348","LOST OR STOLEN PROPERTY","THEFT LOST OR MISLAID PROPERTY","1515 OREGON APT 502","",""
"05/20/2018","08:28","218CR0012349","DRUGS","DRUGS","************","",""
"05/20/2018","08:31","218CR0012350","ALARM - BURGLARY","ALARM - BURGLARY","************","",""
"05/20/2018","08:47","218CR0012351","MEDICAL - EMERGENCY","MEDICAL - EMERGENCY","2029 GEORGE","",""
"05/20/2018","08:52","218CR0012352","CIVIL PAPER SERVICE","CIVIL PAPER SERVICE","450 GIRARD","",""
"05/20/2018","09:13","218CR0012353","CIVIL PAPER SERVICE","CIVIL PAPER SERVICE","2025 GAYLORD","",""
"05/20/2018","09:16","218CR0012354","RESTRAINING ORDER VIOLATION","RESTRAINING ORDER VIOLATION","************","",""
"05/20/2018","09:17","218CR0012355","LOST CHILD","LOST CHILD","************","",""
"05/20/2018","09:32","218CR0012356","VANDALISM/CRIMINAL MISCHIEF","CRIMINAL MISCHIEF","ROOSEVELT DR AND LIME KILN RD","",""
"05/20/2018","09:36","218CR0012357","CIVIL PAPER SERVICE","CIVIL PAPER SERVICE","2870 LOCUST ST","",""
"05/20/2018","09:37","218CR0012358","FRAUD","THEFT OF IDENTITY","3523 S WARREN","",""
"05/20/2018","09:45","218CR0012359","CIVIL PAPER SERVICE","CIVIL PAPER SERVICE","3142 HANNIBAL","",""
"05/20/2018","09:53","218CR0012360","LED BUSINESS","LED BUSINESS","BSB LED GUN RANGE","",""
"05/20/2018","09:55","218CR0012361","CIVIL PAPER SERVICE","CIVIL PAPER SERVICE","1437 HOBSON","",""
"05/20/2018","10:12","218CR0012362","SUSPICIOUS ACTIVITY","SUSPICIOUS ACTIVITY","BROADWAY AND WESTERN","",""
"05/20/2018","10:26","218CR0012363","VANDALISM/CRIMINAL MISCHIEF","VANDALISM/CRIMINAL MISCHIEF","1130 MARYLAND","",""
"05/20/2018","11:00","218CR0012365","RESTRAINING ORDER VIOLATION","RESTRAINING ORDER VIOLATION","************","",""
"05/20/2018","11:00","218CR0012364","FIRE - OTHER","FIRE - OTHER","BRYANT","",""
"05/20/2018","11:03","218CR0012366","DISTURBANCE","DISTURBANCE","105 RAMPART DR #212","",""
"05/20/2018","11:05","218CR0012367","HARASSMENT","HARASSMENT","225 N ALASKA","",""
"05/20/2018","11:44","218CR0012368","LOST CHILD","LOST CHILD","************","",""
"05/20/2018","11:45","218CR0012369","HARASSMENT","HARASSMENT","CLARKS PARK","",""
"05/20/2018","12:00","218CR0012370","PARKING COMPLAINT","PARKING COMPLAINT","21 N JACKSON","",""
"05/20/2018","12:03","218CR0012371","ABANDONED VEHICLE","ABANDONED VEHICLE","3408 CALIFORNIA","",""
"05/20/2018","12:11","218CR0012372","WELFARE CHECK","WELFARE CHECK","514 W PARK","",""
"05/20/2018","12:19","218CR0012373","HARASSMENT","HARASSMENT","3901 HARRISON AVE","",""
"05/20/2018","12:29","218CR0012374","T/S","SPEEDING","PLATINUM AND IDAHO","",""
"05/20/2018","12:48","218CR0012375","UNKNOWN PROBLEM","UNKNOWN PROBLEM","3040 BAYARD ST","",""
"05/20/2018","13:00","218CR0012376","BURGLARY","BURGLARY, RESIDENCE","2039 S ARIZONA","",""
"05/20/2018","13:17","218CR0012377","DISTURBANCE","DISTURBANCE","402 S MONTANA APT #9","",""
"05/20/2018","13:24","218CR0012378","ATL","ATL","DEWEY AND WYNNE","",""
"05/20/2018","13:27","218CR0012379","ANIMAL COMPLAINT","ANIMAL COMPLAINT","CENTER ST","",""
"05/20/2018","13:41","218CR0012380","UNWANTED PERSON","UNWANTED PERSON","************","",""
"05/20/2018","14:03","218CR0012381","ACCIDENT","ACCIDENT","2401 CONTINENTAL DR","",""
"05/20/2018","14:09","218CR0012382","UNKNOWN PROBLEM","UNKNOWN PROBLEM","814 S COLORADO","",""
"05/20/2018","14:28","218CR0012383","SUSPICIOUS ACTIVITY","SUSPICIOUS ACTIVITY","304 N MAIN ST","",""
"05/20/2018","14:36","218CR0012384","CIVIL PAPER SERVICE","CIVIL PAPER SERVICE","11 S EXCELSIOR","",""
"05/20/2018","14:46","218CR0012385","UNWANTED PERSON","UNWANTED PERSON","************","",""
"05/20/2018","14:46","218CR0012386","THEFT","THEFT, SHOPLIFT","1301 HARRISON AVE","",""
"05/20/2018","14:57","218CR0012387","ALL OTHER","ALL OTHER","1500 HARRISON AVE","",""
"05/20/2018","15:16","218CR0012388","ATL","ATL","","",""
"05/20/2018","15:39","218CR0012390","SUSPICIOUS ACTIVITY","SUSPICIOUS ACTIVITY","FRONT AND IOWA","",""
"05/20/2018","15:40","218CR0012389","T/S","T/S @ COBBAN ST AND WHITMAN AVE","COBBAN ST AND WHITMAN AVE","",""
"05/20/2018","15:42","218CR0012391","FOUND PROPERTY","FOUND PROPERTY","************","",""
"05/20/2018","15:55","218CR0012392","T/S","T/S","HARRISON AND MARCIA","",""
"05/20/2018","16:08","218CR0012393","ALARM - BURGLARY","ALARM - BURGLARY","************","",""
"05/20/2018","16:11","218CR0012394","CIVIL STANDBY","CIVIL STANDBY","101 W CENTER","",""
"05/20/2018","16:32","218CR0012395","ILLEGAL SHOOTING","ILLEGAL SHOOTING","600 S ROCKER ROAD","",""
"05/20/2018","16:39","218CR0012396","SUSPICIOUS ACTIVITY","SUSPICIOUS ACTIVITY","111 AIRPORT ROAD/BERT MOONEY A","",""
"05/20/2018","16:47","218CR0012397","SUSPICIOUS ACTIVITY","SUSPICIOUS ACTIVITY","1301 HARRISON AVE","",""
"05/20/2018","17:20","218CR0012398","SUSPICIOUS ACTIVITY","SUSPICIOUS ACTIVITY","675 S MAIN ST","",""
"05/20/2018","17:35","218CR0012399","UNKNOWN PROBLEM","UNKNOWN PROBLEM","541 S MAIN ST","",""
"05/20/2018","17:55","218CR0012400","T/S","T/S","SHIELDS AND CHICAGO","",""
"05/20/2018","18:02","218CR0012401","DISTURBANCE","DISTURBANCE","400 S CLARK ST","",""
"05/20/2018","18:10","218CR0012402","SUSPICIOUS ACTIVITY","SUSPICIOUS ACTIVITY","1120 IOWA AVE","",""
"05/20/2018","18:22","218CR0012403","HARASSMENT","HARASSMENT","1504 SILVER BOW HOMES","",""
"05/20/2018","18:36","218CR0012404","ATL","ATL","I90 MM 236/237 WB","",""
"05/20/2018","18:47","218CR0012405","HARASSMENT","HARASSMENT","537 1/2 S COLORADO","",""
"05/20/2018","18:50","218CR0012406","SUSPICIOUS ACTIVITY","SUSPICIOUS ACTIVITY","OREGON STREET BRIDGE","",""
"05/20/2018","18:53","218CR0012407","MAN WITH A GUN","MAN WITH A GUN","************","",""
"05/20/2018","19:29","218CR0012408","DISTURBANCE","ASSAULT, SIMPLE","645 TRAVONIA","",""
"05/20/2018","19:32","218CR0012409","ALL OTHER","ALL OTHER","1251 E SECOND","",""
"05/20/2018","19:53","218CR0012410","ALL OTHER","ALL OTHER","225 N ALASKA ST","",""
"05/20/2018","20:00","218CR0012411","THEFT","THEFT, SHOPLIFT","1301 HARRISON AVE","",""
"05/20/2018","20:17","218CR0012412","SUSPICIOUS ACTIVITY","SUSPICIOUS ACTIVITY","727 S WYOMING","",""
"05/20/2018","20:45","218CR0012413","T/S","T/S @ LEXINGTON AND ROWE","LEXINGTON AND ROWE","",""
"05/20/2018","21:01","218CR0012414","FOUND PROPERTY","FOUND PROPERTY","************","",""
"05/20/2018","21:16","218CR0012415","WELFARE CHECK","WELFARE CHECK","MT HIGHLAND AND CONTINENTAL D","",""
"05/20/2018","21:50","218CR0012416","UNWANTED PERSON","UNWANTED PERSON","************","",""
"05/20/2018","22:29","218CR0012417","TRAFFIC HAZARD","TRAFFIC HAZARD","SHIELDS AND TEXAS","",""
"05/20/2018","22:43","218CR0012418","THEFT","THEFT","155 W QUARTZ BSB DETENTION CEN","",""
"05/20/2018","23:17","218CR0012419","T/S","T/S @ COBBAN AND HOWARD","COBBAN AND HOWARD","",""
"05/20/2018","23:22","218CR0012420","ACCIDENT","DUI PER SE .08 OR GREATER","IDAHO ST AND PORPHYRY ST","ARREST(s) MADE",""
"05/20/2018","23:29","218CR0012422","DISTURBANCE","DISTURBANCE","10 BLK N MAIN W ALLEY","",""
"05/20/2018","23:29","218CR0012421","T/S","T/S @ BROADWAY AND HAMILTON","BROADWAY AND HAMILTON","",""
"05/20/2018","23:45","218CR0012423","ALARM - BURGLARY","ALARM - BURGLARY","************","",""
"05/20/2018","23:52","218CR0012424","T/S","T/S @ OREGON AND DEWEY","OREGON AND DEWEY","",""
"05/20/2018","23:53","218CR0012425","ATL","ATL","800 BLK S ARIZONA","",""
"05/21/2018","00:04","218CR0012426","UNKNOWN PROBLEM","UNKNOWN PROBLEM","EXCELSIOR AT IRON STREET","",""
"05/21/2018","01:44","218CR0012427","ASSIST OTHER AGENCY","ASSIST OTHER AGENCY","IDAHO AND PARK","",""
"05/21/2018","01:55","218CR0012428","TRAFFIC HAZARD","TRAFFIC HAZARD","ROWE RD AT GOLF COURSE","",""
"05/21/2018","03:00","218CR0012430","T/S","T/S @ 3700 BLK HARRISON AVE","3700 BLK HARRISON AVE","",""
"05/21/2018","03:14","218CR0012431","ALL OTHER","ALL OTHER","AREA NORTH OF THE AIRPORT","",""
"05/21/2018","03:43","218CR0012432","BUSINESS CHECK","BUSINESS CHECK","1370 HARRISON TOWN PUMP","",""
"05/21/2018","03:44","218CR0012433","SUSPICIOUS ACTIVITY","SUSPICIOUS ACTIVITY","PARK // MINING MUSEUM RD","",""
"05/21/2018","05:16","218CR0012434","UNWANTED PERSON","UNWANTED PERSON","************","",""
"05/21/2018","07:55","218CR0012436","T/S","T/S @ MT HIGHLAND AND ELIZABETH WARR","MT HIGHLAND AND ELIZABETH WARR","",""
 

BSB police report ending May 21, 2018

 

BOOKED

Prisoner / DOB / SocSec / Agency# Booked Booking# Pod Hold For / Bond Release

 

WARREN JR, ROBERT LEWIS 05/20/2018-03:15218AR0001064 H1/01 BUTTE CITY COUR -

11/16/1978 ********* BSBLED ON-SITE ARREST (CUSTODY) 4700E1800824 1 Days 0.00

45-5-206 PFMA - REASONABLE APPREHENSION, MISDEM

DELICH, DELENA MICHELLE 05/20/2018-02:07218AR0001063 A/02 MISSOULA COUNTY -

11/21/1973 ********* BSBLED WARRANT 4700E1800823 1 Days 12760.00

ZZZ-OOJFEL OUT OF JURISDICTION - FELONY, FELONY

45-7-309 CRIMINAL CONTEMPT, MISDEM

45-7-309 CRIMINAL CONTEMPT, MISDEM

45-7-309 CRIMINAL CONTEMPT, MISDEM

45-7-309 CRIMINAL CONTEMPT, MISDEM

SALMONSEN, KYLE JAMES 05/19/2018-12:28218AR0001060 PC/01 BUTTE CITY COUR -

07/09/1990 ********* BSBLED ON-SITE ARREST (CUSTODY) 2 Days 0.00

46-23-1012 PROBATION VIOLATION, VIOL (F)

45-5-626 VIOLATION OF PROTECTION ORDER, MISDEM

ARTHUR, ROBIN JO 05/19/2018-03:55218AR0001059 A/01 GALLATIN COUNTY -

06/28/1980 ********* BSBLED WARRANT 4700E1800822 2 Days 0.00

61-5-212 DRIVE WHILE SUSP. OR REVOKED, MISDEM

ZZZ-OOJFEL OUT OF JURISDICTION - FELONY, FELONY

ZZZ-OOJMISD OUT OF JURISDICTION - MISD, MISDEM

WHITAKER, JAMES WILLIAM 05/18/2018-21:05218AR0001058 E/06 BUTTE JUSTICE / -

06/16/1970 ********* BSBLED WARRANT 4700E1800821 3 Days 0.00

45-6-325 FORGERY/COUNTERFEIT, FELONY

46-23-1023 PAROLE VIOLATION, VIOL (F)

BERG, KHIANA NICOLE 05/18/2018-15:15218AR0001056 A/23 BUTTE DISTRICT -

07/06/1995 ********* BSBLED ON-SITE ARREST (CUSTODY) NONENEEDED 3 Days 0.00

45-5-210 ASSAULT PEACE OFFC - AGG/INJ, FELONY

45-5-210 ASSAULT PEACE OFFC - AGG/INJ, FELONY

ZZZ-OOJFEL OUT OF JURISDICTION - FELONY, FELONY

VALDEZ, VERNON WAYNE 05/18/2018-13:44218AR0001055 F/07 BUTTE JUSTICE/G -

06/04/1990 ********* BSBLED ON-SITE ARREST (CUSTODY) 3 Days 0.00

45-10-103 POSSESS DRUG PARAPHERNALIA, MISDEM (C)

45-6-325 FORGERY/COUNTERFEIT, FELONY

CRAIN, GORDON PATRICK 05/18/2018-11:39218AR0001052 C/02 BUTTE CITY COUR -

04/16/1991 ********* ON-SITE ARREST (CUSTODY) NONENEEDED 3 Days 0.00

ZZZ-SENTENCE SERVING SENTENCE, VIOL

SEVORES, JOSHUA MILO 05/18/2018-09:03218AR0001049 F/08 BUTTE JUSTICE C -

11/06/1979 ********* BSBLED ON-SITE ARREST (CUSTODY) 4700E1800814 3 Days 0.00

45-10-103 POSSESS DRUG PARAPHERNALIA, MISDEM (C)

45-9-102 POSSESSION OF DANGEROUS DRUGS, FELONY (B)

BLOODWORTH-HUBBS, IVY IRENE 05/18/2018-07:23218AR0001048 H4/01 BUTTE CITY COUR -

02/19/1958 ********* BSBLED ON-SITE ARREST (CUSTODY) 4700E1800813 3 Days 585.00

45-5-201 ASSAULT, SIMPLE, MISDEM

TOTAL 10

 

ON HAND

Prisoner / DOB / SocSec / Agency# Booked Booking# Pod Hold For / Bond Release

 

VAUGHN, ROY MICHAEL 05/17/2018-16:50218AR0001045 MIN/13 BUTTE JUSTICE C -

11/03/1953 ********* BSBLED WARRANT 4700E1800817 4 Days 20000.00

45-7-301 RESISTING ARREST, MISDEM (C)

45-5-220 STALKING, FELONY (C)

LONG, MARTIN PAUL 05/17/2018-14:27218AR0001042 E/05 BUTTE DISTRICT -

11/28/1968 ********* BSBLED ON-SITE ARREST (CUSTODY) 4700E1800811 4 Days 75000.00

46-9-503 VIOLATION OF RELEASE CONDITION, VIOL

AGUILAR, GONZALO JOE 05/17/2018-02:15218AR0001037 B/05 JUSTICE-KILMER 05/27/2018-16:00

07/24/1985 ********* BSBLED WARRANT 4 Days 1295.00 SCHEDULED

45-7-301 RESISTING ARREST, MISDEM (C)

45-7-309 CRIMINAL CONTEMPT, MISDEM

LAMERE, ANTHONY WAYNE 05/16/2018-17:15218AR0001032 F/05 BUTTE DISTRICT- -

07/15/1988 ********* OTHER WARRANT 5 Days 10000.00

45-7-302 OBSTRUCTING A PEACE OFFICER, MISDEM (D)

46-18-203 REVOCATION OF SENTENCE, FELONY

HOWARD, CHRISTOPHER DAVID 05/16/2018-16:05218AR0001030 F/06 CASCADE CO/DOC -

06/17/1994 ********* BSBLED WARRANT 5 Days 0.00

45-7-309 CRIMINAL CONTEMPT, FELONY

ZZZ-OOJFEL OUT OF JURISDICTION - FELONY, FELONY

SCHNEIDER, NATHAN KEANE 05/16/2018-06:15218AR0001028 E/12 DISTRICT COURT -

08/23/1977 ********* BSBLED ON-SITE ARREST (CUSTODY) 5 Days 0.00

45-6-301 THEFT, ALL OTHERS, FELONY (B)

45-6-204 BURGLARY, NON-RESIDENCE, FELONY

WORDELL, STEPHEN EDWARD 05/15/2018-15:44218AR0001022 MIN/03 COLORADO -

08/29/1983 ********* OTHER WARRANT 4700E1800797 6 Days 6000.00

ZZZ-OOJFEL OUT OF JURISDICTION - FELONY, FELONY

KICHNET, KEVIN ROBERT 05/14/2018-16:30218AR0001016 MIN/12 A.P.P. -

05/05/1987 ********* APP ON-SITE ARREST (CUSTODY) 4700E1800795 7 Days 50000.00

46-23-1012 PROBATION VIOLATION, VIOL (F)

FOOTE, JEREMIAH STEPHEN 05/13/2018-16:26218AR0001012 F/09 BUTTE JUSTICE/B -

02/15/1990 ********* BSB WARRANT 4700E1800792 8 Days 22500.00

45-5-626 VIOLATION OF PROTECTION ORDER, MISDEM

45-5-220 STALKING, FELONY (C)

45-5-626 VIOLATION OF PROTECTION ORDER, MISDEM

LUNCEFORD, BEVERLY ROSE 05/11/2018-16:05218AR0001004 A/06 BUTTE DISTRICT -

10/23/1950 ********* BSBLED ON-SITE ARREST (CUSTODY) NONENEEDED 10 Days 0.00

61-7-108 IMMEDIATE NOTIFICATION OF ACC, VIOL

61-8-302 CARELESS DRIVING, MISDEM

61-7-105 FAIL TO ID, SELF AND VEHICLE, MISDEM

61-7-107 HIT AND RUN, HIGHWAY FIXTURES, MISDEM

61-8-401 DUI DRUGS OR ALCOHOL, MISDEM

MELLBERG, ADJACENT EMERY 05/09/2018-12:01218AR0000991 B/06 GALLATIN CO -

07/21/1994 ********* MHP ON-SITE ARREST (CUSTODY) 4700E1800774 12 Days 685.00

61-5-212 DRIVE WHILE SUSP. OR REVOKED, MISDEM

61-8-401 DUI DRUGS OR ALCOHOL, MISDEM

ZZZ-MHPWAR MONTANA HIGHWAY PATROL WARRANT, MISDEM

ZZZ-OOJMISD OUT OF JURISDICTION - MISD, MISDEM

VONDRICH, CHARLOTTE MARIE 05/08/2018-13:00218AR0000984 A/20 AP&P -

10/01/1991 ********* DOC WARRANT 13 Days 0.00

46-23-1023 PAROLE VIOLATION, VIOL (F)

OSIER, ALEX DANIEL 05/07/2018-20:53218AR0000979 D/01 BUTTE DISTRICT -

10/20/1997 ********* BSBLED WARRANT 4700E1800765 14 Days 25000.00

45-10-103 POSSESS DRUG PARAPHERNALIA, MISDEM (C)

46-9-503 VIOLATION OF RELEASE CONDITION, VIOL

HOWALD, DAVID MICHAEL 05/06/2018-18:00218AR0000968 E/02 AP&P -

12/20/1977 ********* BSBLED ON-SITE ARREST (CUSTODY) 15 Days 25000.00

46-23-1012 PROBATION VIOLATION, VIOL (F)

45-5-208 NEGLIGENT ENDANGERMENT, MISDEM

45-5-206 PFMA - MINOR INJ/PHYSICAL CONT, MISDEM

SCHLEPP, STEVEN PAUL 05/03/2018-15:33218AR0000947 W/H/01 BUTTE DISTRICT -

10/22/1974 ********* BSBLED ON-SITE ARREST (CUSTODY) 18 Days 0.00

45-5-625 SEXUAL ABUSE OF CHILDREN, FELONY

45-5-503 SIWOC, FELONY

RICHARDS, CODY JOHN 05/01/2018-10:56218AR0000929 F/04 JEFFERSON CITY/ -

07/20/1995 ********* BSBLED WARRANT 4700E1800729 20 Days 1285.00

ZZZ-ADDLCHRGE SEE COMMENTS, FELONY

46-23-1012 PROBATION VIOLATION, VIOL (F)

ZZZ-ADDLCHRGE SEE COMMENTS, FELONY

CACEK, DANIELLE MARIE 05/01/2018-08:20218AR0000927 A/19 DOC -

03/19/1986 ********* DOC WARRANT 4700E1800728 20 Days 0.00

46-23-1023 PAROLE VIOLATION, VIOL (F)

45-9-102 POSSESSION OF DANGEROUS DRUGS, MISDEM (B)

45-10-103 POSSESS DRUG PARAPHERNALIA, MISDEM (C)

CASTILLO, VIDAL JOSEPH 04/29/2018-23:55218AR0000920 F/01 BUTTE JUSTICE / -

10/02/1982 ********* AO3017472ON-SITE ARREST (CUSTODY) 4700D1800722 22 Days 25000.00

46-23-1023 PAROLE VIOLATION, VIOL (F)

45-5-206 PFMA - MINOR INJ/PHYSICAL CONT, FELONY

FALCON, JOHNNY LEE 04/28/2018-11:52218AR0000914 MED1/01 BUTTE JUSTICE C -

12/24/1985 ********* DOC ON-SITE ARREST (CUSTODY) 4700D1800717 23 Days 105000.00

ZZZ-ADDLCHRGE SEE COMMENTS, MISDEM

45-5-210 ASSAULT PEACE OFFC - AGG/INJ, FELONY

45-10-103 POSSESS DRUG PARAPHERNALIA, MISDEM (C)

45-7-301 RESISTING ARREST, MISDEM (C)

45-5-401 ROBBERY, FELONY

MYERS, AMY MARIE 04/26/2018-08:24218AR0000902 A/03 DOC -

10/08/1972 ********* BSBLED ON-SITE ARREST (CUSTODY) 25 Days 0.00

45-6-301 BUY/POSSESS STOLEN PROPERTY, FELONY

45-6-301 THEFT FROM MOTOR VEHICLE, FELONY (B)

45-6-301 MOTOR VEHICLE THEFT, FELONY (B)

TROTTIER, ROSELYN 04/25/2018-15:52218AR0000897 A/18 BUTTE JUSTICE / -

08/07/1989 ********* BSBLED ON-SITE ARREST (CUSTODY) 4700D1800703 26 Days 6000.00

46-23-1023 PAROLE VIOLATION, VIOL (F)

45-10-103 POSSESS DRUG PARAPHERNALIA, MISDEM (C)

45-9-102 POSSESSION OF DANGEROUS DRUGS, FELONY (B)

EBY, BRETT WAYNE 04/25/2018-12:16218AR0000896 C/01 BUTTE JUSTICE/D -

09/12/1979 ********* BSBLED ON-SITE ARREST (CUSTODY) 4700D1800701 26 Days 15000.00

46-23-1023 PAROLE VIOLATION, VIOL (F)

45-10-103 POSSESS DRUG PARAPHERNALIA, MISDEM (C)

45-9-103 POSSESSION WITH INTENT TO SELL, FELONY (A)

KERN, GINA LARAE 04/25/2018-11:45218AR0000895 A/13 BUTTE JUSTICE C -

10/16/1975 ********* BSBLED ON-SITE ARREST (CUSTODY) 4700D1800700 26 Days 15000.00

46-23-1023 PAROLE VIOLATION, VIOL (F)

45-10-103 POSSESS DRUG PARAPHERNALIA, MISDEM (C)

45-9-103 POSSESSION WITH INTENT TO SELL, FELONY (A)

ASCHEMAN, CLIFFORD WYATT 04/25/2018-10:40218AR0000894 E/03 BUTTE DISTRICT -

10/13/1989 ********* BSBLED WARRANT 4700D1800699 26 Days 75000.00

46-18-203 REVOCATION OF SENTENCE, FELONY

STANDINGELK, CARL JAMES 04/25/2018-06:21218AR0000891 E/09 BUTTE DISTRICT -

10/22/1984 ********* BSBLED WARRANT 26 Days 77000.00

ZZZ-ADDLCHRGE SEE COMMENTS, MISDEM

46-9-503 VIOLATION OF RELEASE CONDITION, FELONY

FISHER, THOMAS CHARLES 04/20/2018-11:30218AR0000858 F/03 BUTTE JUSTICE/D -

07/19/1976 ********* BSB ON-SITE ARREST (CUSTODY) 4700D1800669 31 Days 110805.00

ZZZ-ADDLCHRGE SEE COMMENTS, FELONY

ZZZ-ADDLCHRGE SEE COMMENTS, FELONY

ZZZ-MHPWAR MONTANA HIGHWAY PATROL WARRANT, MISDEM

BERRY, FOREST RAY 04/18/2018-12:28218AR0000840 F/16 BUTTE DISTRICT -

10/14/1992 ********* BSBLED WARRANT 4700D1800657 33 Days 20000.00

46-9-503 VIOLATION OF RELEASE CONDITION, VIOL

JOHNSON, LINDY JO 04/18/2018-12:23218AR0000839 A/04 BUTTE DISTRICT -

09/07/1976 ********* DOC WARRANT 4700D1800656 33 Days 25000.00

46-9-503 VIOLATION OF RELEASE CONDITION, VIOL

WILKIE, TARA JANELLE 04/16/2018-11:53218AR0000821 A/05 BUTTE DISTRICT -

01/06/1991 ********* BSBLED ON-SITE ARREST (CUSTODY) 35 Days 0.00

45-6-301 THEFT, ALL OTHERS, FELONY (B)

45-5-207 CRIMINAL ENDANGERMENT, FELONY

45-6-204 AGGRAVATED BURGLARY, FELONY

45-6-204 BURGLARY, RESIDENCE, FELONY

45-6-103 ARSON, FELONY

OBRESLEY, JERAD ROY 04/13/2018-05:10218AR0000814 E/04 BUTTE JUSTICE/ -

05/13/1989 ********* BSBLED ON-SITE ARREST (CUSTODY) 4700D1800641 38 Days 6000.00

45-9-102 POSSESSION OF DANGEROUS DRUGS, FELONY (B)

45-9-102 POSSESSION OF DANGEROUS DRUGS, MISDEM (B)

45-10-103 POSSESS DRUG PARAPHERNALIA, MISDEM (C)

46-23-1023 PAROLE VIOLATION, VIOL (F)

SMITH, SAM TRAMMELL 04/13/2018-02:10218AR0000810 F/11 BUTTE DISTRICT -

10/18/1980 ********* BSBLED WARRANT 4700D1800638 38 Days 6000.00

45-9-102 POSSESSION OF DANGEROUS DRUGS, MISDEM (B)

45-9-102 POSSESSION OF DANGEROUS DRUGS, MISDEM (B)

45-9-102 POSSESSION OF DANGEROUS DRUGS, FELONY (B)

45-10-103 POSSESS DRUG PARAPHERNALIA, MISDEM (C)

45-7-309 CRIMINAL CONTEMPT, FELONY

MCDONALD, KYLIE DANIELLE 04/12/2018-20:10218AR0000809 H3/01 PASSAGES -

06/12/1993 ********* DOC WARRANT 4700D1800636 39 Days 0.00

46-23-1023 PAROLE VIOLATION, VIOL (F)

WERNER, ZANE RAYMOND 04/12/2018-11:40218AR0000805 C/04 DISTRICT-KRUEGE -

05/17/1983 ********* BSBLED WARRANT 4700D1800629 39 Days 0.00

46-9-503 VIOLATION OF RELEASE CONDITION, VIOL

PECK, JOHN MICHAEL 04/11/2018-16:05218AR0000794 E/10 BUTTE CITY COUR -

09/13/1983 ********* BSBLED ON-SITE ARREST (CUSTODY) 4700D1800621 40 Days 5000.00

45-10-103 POSSESS DRUG PARAPHERNALIA, MISDEM (C)

45-7-309 CRIMINAL CONTEMPT, MISDEM

45-7-309 CRIMINAL CONTEMPT, MISDEM

45-7-309 CRIMINAL CONTEMPT, MISDEM

WRIGHT, TAYLOR JAMES 04/09/2018-23:34218AR0000780 B/01 BUTTE CITY/JUST -

09/21/1991 ********* BSBLED ON-SITE ARREST (CUSTODY) 4700D1800603 42 Days 5000.00

45-6-101 CRIMINAL MISCHIEF, MISDEM

45-6-105 TAMPER W/ COMMUNICATION DEVICE, MISDEM

45-5-206 PFMA - REASONABLE APPREHENSION, MISDEM

45-6-204 BURGLARY, RESIDENCE, FELONY

MCCALLUM, THOMAS JAMES 04/09/2018-17:21218AR0000775 MIN/10 BUTTE JUSTICE C -

09/05/1991 ********* BSBLED WARRANT 4700D1800637 42 Days 5000.00

45-6-301 BUY/POSSESS STOLEN PROPERTY, FELONY

PELLY, GEORGE FRANKLIN 04/04/2018-16:05218AR0000731 F/17 BUTTE DISTRICT/ -

05/02/1964 ********* BSBLED ON-SITE ARREST (CUSTODY) 47 Days 105233.00

ZZZ-MHPWAR MONTANA HIGHWAY PATROL WARRANT, MISDEM

45-10-103 POSSESS DRUG PARAPHERNALIA, MISDEM (C)

45-9-102 POSSESSION OF DANGEROUS DRUGS, FELONY (B)

45-5-206 PFMA - MINOR INJ/PHYSICAL CONT, FELONY

45-5-206 PFMA - REASONABLE APPREHENSION, FELONY

HANCOCK-DUFFEY, DAKOTA RYAN 04/04/2018-14:15218AR0000729 B/07 DOC-KRUEGER -

06/06/1997 ********* BSBLED WARRANT 4700D1800568 47 Days 30000.00

46-18-203 REVOCATION OF SENTENCE, FELONY

MILLER, JAMES DEAN 04/04/2018-11:00218AR0000727 B/04 BUTTE DISTRICT -

08/25/1967 ********* BSBLED WARRANT 4700D1800564 47 Days 0.00

46-9-503 VIOLATION OF RELEASE CONDITION, VIOL

BURNEY, LINDSEY COLET 04/02/2018-14:30218AR0000710 A/10 AP&P -

08/17/1989 ********* BSBLED ON-SITE ARREST (CUSTODY) 4700D1800555 49 Days 10000.00

46-23-1012 PROBATION VIOLATION, VIOL (F)

45-9-102 POSSESSION OF DANGEROUS DRUGS, FELONY (B)

45-10-103 POSSESS DRUG PARAPHERNALIA, MISDEM (C)

GILL, STEVEN RICHARD 04/02/2018-14:10218AR0000709 E/01 BUTTE DISTRICT -

06/23/1977 ********* BSBLED ON-SITE ARREST (CUSTODY) 4700D1800554 49 Days 0.00

45-10-103 POSSESS DRUG PARAPHERNALIA, MISDEM (C)

45-9-102 POSSESSION OF DANGEROUS DRUGS, FELONY (B)

46-23-1023 PAROLE VIOLATION, VIOL (F)

MADSEN, ANGELA MARIE 03/29/2018-02:15218AR0000684 A/22 BUTTE DISTRICT -

08/21/1986 ********* BSBLED WARRANT 4700C1800534 53 Days 1715.00

45-10-103 POSSESS DRUG PARAPHERNALIA, MISDEM (C)

45-9-102 POSSESSION OF DANGEROUS DRUGS, FELONY (B)

ZZZ-OOJMISD OUT OF JURISDICTION - MISD, MISDEM

RHODES, WESLEY JAMES 03/28/2018-20:05218AR0000682 F/02 BUTTE JUSTICE C -

12/09/1994 ********* BSBLED WARRANT 4700C1800532 54 Days 46085.00

ZZZ-ADDLCHRGE SEE COMMENTS, FELONY

45-7-301 RESISTING ARREST, MISDEM (C)

45-6-301 THEFT, ALL OTHERS, FELONY (B)

45-6-301 THEFT, ALL OTHERS, MISDEM (B)

45-6-301 BUY/POSSESS STOLEN PROPERTY, MISDEM

HUNT, ERIK ROBERT 03/28/2018-18:55218AR0000681 E/11 BUTTE DISTRICT- -

03/07/1979 ********* BSBLED ON-SITE ARREST (CUSTODY) 4700C1800543 54 Days 15335.00

45-7-301 RESISTING ARREST, MISDEM (C)

45-7-302 OBSTRUCTING A PEACE OFFICER, MISDEM (D)

45-6-301 THEFT, SHOPLIFT, MISDEM (B)

45-6-301 THEFT, SHOPLIFT, MISDEM (B)

45-6-301 THEFT, SHOPLIFT, MISDEM (B)

45-6-301 BUY/POSSESS STOLEN PROPERTY, FELONY

46-18-203 REVOCATION OF SENTENCE, FELONY

46-23-1012 PROBATION VIOLATION, VIOL (F)

KENNEDY, ROBBIE RAY 03/28/2018-07:41218AR0000676 C/03 BUTTE DISTRICT -

04/09/1983 ********* BSBLED WARRANT 4700C1800527 54 Days 15000.00

46-18-203 REVOCATION OF SENTENCE, FELONY

HARRISON, DYLAN JO 03/28/2018-00:35218AR0000674 E/13 BUTTE JUSTICE C -

05/02/1994 ********* DOC ON-SITE ARREST (CUSTODY) 4700C1800525 54 Days 20000.00

45-6-301 THEFT, ALL OTHERS, MISDEM (B)

45-6-301 THEFT, ALL OTHERS, FELONY (B)

46-23-1023 PAROLE VIOLATION, VIOL (F)

FURY, RAVEN FRANCIS 03/22/2018-12:29218AR0000635 H2/02 BUTTE DISTRICT -

05/11/1982 ********* BSBLED WARRANT 4700C1800513 60 Days 0.00

45-10-103 POSSESS DRUG PARAPHERNALIA, MISDEM (C)

45-6-301 BUY/POSSESS STOLEN PROPERTY, MISDEM

45-6-301 BUY/POSSESS STOLEN PROPERTY, MISDEM

45-6-301 BUY/POSSESS STOLEN PROPERTY, MISDEM

45-6-301 BUY/POSSESS STOLEN PROPERTY, MISDEM

45-6-301 BUY/POSSESS STOLEN PROPERTY, MISDEM

45-6-301 BUY/POSSESS STOLEN PROPERTY, MISDEM

45-6-301 BUY/POSSESS STOLEN PROPERTY, MISDEM

TARKALSON, TREY MICHAEL CURTIS 03/21/2018-21:05218AR0000627 MIN/01 BUTTE JUSTICE K -

01/16/1997 ********* BSBLED ON-SITE ARREST (CUSTODY) 4700C1800504 61 Days 11000.00

ZZZ-OOJFEL OUT OF JURISDICTION - FELONY, FELONY

46-23-1012 PROBATION VIOLATION, VIOL (F)

45-10-103 POSSESS DRUG PARAPHERNALIA, MISDEM (C)

45-9-102 POSSESSION OF DANGEROUS DRUGS, FELONY (B)

45-9-102 POSSESSION OF DANGEROUS DRUGS, MISDEM (B)

RIVERS, JEREMY MICHAEL 03/21/2018-09:53218AR0000622 E/15 AP&P -

03/31/1977 ********* BSBLEA ON-SITE ARREST (CUSTODY) 4700C1800349 61 Days 0.00

45-10-103 POSSESS DRUG PARAPHERNALIA, MISDEM (C)

45-9-101 CRIM SALE OF DANGEROUS DRUGS, MISDEM (A)

45-9-102 POSSESSION OF DANGEROUS DRUGS, FELONY (B)

46-23-1023 PAROLE VIOLATION, FELONY (F)

KAHLE, LAWRENCE HOWARD 03/20/2018-14:32218AR0000614 E/17 BUTTE DISTRICT -

10/08/1966 ********* DOC ON-SITE ARREST (CUSTODY) 4700C1800467 62 Days 50000.00

45-6-325 FORGERY/COUNTERFEIT, FELONY

GAVIN, CODY MICHAEL 03/20/2018-12:27218AR0000612 MIN/09 BUTTE DISTRICT- -

07/08/1990 ********* BSBLED WARRANT 4700C1800466 62 Days 585.00

ZZZ-OOJFEL OUT OF JURISDICTION - FELONY, FELONY

46-9-503 VIOLATION OF RELEASE CONDITION, VIOL

FRASCA, TRAVIS RAY 03/14/2018-11:12218AR0000556 MIN/08 AP&P -

09/09/1986 ********* BSBLED WARRANT 4700C1800417 68 Days 0.00

46-23-1023 PAROLE VIOLATION, VIOL (F)

45-6-301 THEFT, ALL OTHERS, FELONY (B)

MASCARENAS, ROSE JAE 03/13/2018-17:50218AR0000549 MED2/01 AP&P/BUTTE JUST -

02/01/1991 ********* BSBLED ON-SITE ARREST (CUSTODY) 4700C1800412 69 Days 1000.00

ZZZ-ADDLCHRGE SEE COMMENTS, MISDEM

45-10-103 POSSESS DRUG PARAPHERNALIA, MISDEM (C)

46-23-1023 PAROLE VIOLATION, VIOL (F)

45-9-102 POSSESSION OF DANGEROUS DRUGS, FELONY (B)

BATES, MARIAH ELIZABETH 03/13/2018-17:23218AR0000548 A/09 BUTTE JUSTICE C -

01/29/1996 ********* BSBLED ON-SITE ARREST (CUSTODY) 4700C1800410 69 Days 35500.00

45-10-103 POSSESS DRUG PARAPHERNALIA, MISDEM (C)

46-18-203 REVOCATION OF SENTENCE, VIOL

45-9-102 POSSESSION OF DANGEROUS DRUGS, FELONY (B)

JAMES, ANDREW ALAN 03/08/2018-14:35218AR0000503 C/07 BUTTE JUSTICE C -

02/18/1997 ********* BSBLED WARRANT 4700C1800377 74 Days 50000.00

45-8-213 PRIVACY IN COMMUNICATION, FELONY

45-8-213 PRIVACY IN COMMUNICATION, FELONY

MICKELSON, CORTNEY KAY 03/07/2018-10:49218AR0000490 A/16 BUTTE JUSTICE C -

03/16/1984 ********* BSBDC ON-SITE ARREST (CUSTODY) 4700C1800501 75 Days 0.00

46-23-1023 PAROLE VIOLATION, FELONY (F)

45-10-103 POSSESS DRUG PARAPHERNALIA, MISDEM (C)

45-9-102 POSSESSION OF DANGEROUS DRUGS, FELONY (B)

CAYE, LOUIS TED 03/07/2018-00:05218AR0000488 C/08 BUTTE CITY/JUST -

03/06/1970 ********* APAP ON-SITE ARREST (CUSTODY) 4700C1800364 75 Days 5685.00

45-5-206 PFMA - MINOR INJ/PHYSICAL CONT, FELONY

46-23-1023 PAROLE VIOLATION, VIOL (F)

61-8-401 DUI - (REFUSAL), MISDEM

45-5-206 PFMA - MINOR INJ/PHYSICAL CONT, MISDEM

STEARNS, SALLY ANN 03/04/2018-18:30218AR0000472 A/12 BUTTE JUSTICE C -

09/03/1976 ********* OTHER ON-SITE ARREST (CUSTODY) 4700C1800500 78 Days 9170.00

ZZZ-ADDLCHRGE SEE COMMENTS, MISDEM

45-5-210 ASSAULT PEACE OFFC - NO INJ, FELONY

45-7-301 RESISTING ARREST, MISDEM (C)

61-8-316 FLEEING FROM/ELUDING POLICE, MISDEM

45-6-101 CRIMINAL MISCHIEF, MISDEM

NORRIS, DANIEL ROBERT 03/04/2018-02:56218AR0000469 D/04 BUTTE DISTRICT -

11/28/1978 ********* BSBLED ON-SITE ARREST (CUSTODY) 4700C1800499 78 Days 20000.00

45-9-102 POSSESSION OF DANGEROUS DRUGS, MISDEM (B)

45-10-103 POSSESS DRUG PARAPHERNALIA, MISDEM (C)

46-23-1012 PROBATION VIOLATION, VIOL (F)

MARRY, JEREMIAH BURTON JAMES 02/28/2018-09:08218AR0000438 B/03 BUTTE DISTRICT/ -

11/10/1985 ********* BSBLED ON-SITE ARREST (CUSTODY) NONENEEDED 82 Days 0.00

45-7-302 OBSTRUCTING A PEACE OFFICER, MISDEM (D)

45-7-302 OBSTRUCTING A PEACE OFFICER, MISDEM (D)

45-7-301 RESISTING ARREST, MISDEM (C)

ZZZ-ADDLCHRGE SEE COMMENTS, FELONY

ZZZ-ADDLCHRGE SEE COMMENTS, FELONY

45-9-102 POSSESSION OF DANGEROUS DRUGS, FELONY (B)

BEST, JAMIE MARIE 02/24/2018-21:11218AR0000418 A/07 DOC -

01/15/1954 ********* BSBLED ON-SITE ARREST (CUSTODY) 4700B1800313 86 Days 0.00

46-9-503 VIOLATION OF RELEASE CONDITION, VIOL

TELLER, ZACHARY LEE 02/22/2018-04:46218AR0000393 F/14 BUTTE CITY/JUST -

09/07/1987 ********* BSBLED ON-SITE ARREST (CUSTODY) 4700B1800291 88 Days 27000.00

ZZZ-ADDLCHRGE SEE COMMENTS, FELONY

46-23-1012 PROBATION VIOLATION, VIOL

45-10-103 POSSESS DRUG PARAPHERNALIA, MISDEM (C)

61-5-212 DRIVE WHILE SUSP. OR REVOKED, MISDEM

61-9-206 SELL VEH NO STOP LAMP, MISDEM (A)

45-7-302 OBSTRUCTING A PEACE OFFICER, MISDEM (D)

61-8-344 STOP SIGN VIOLATION, VIOL (A)

61-8-316 FLEEING FROM/ELUDING POLICE, MISDEM

MATTIX, GARY EDWARD 02/18/2018-02:33218AR0000370 E/16 BUTTE JUSTICE C -

08/11/1987 ********* BSBLED ON-SITE ARREST (CUSTODY) 4700C1800507 92 Days 76000.00

46-23-1012 PROBATION VIOLATION, VIOL

45-6-205 POSSESSION OF BURGLARY TOOLS, MISDEM

45-5-213 ASSAULT WITH WEAPON, FELONY

45-8-313 UNLAWFUL POSSESSION OF FIREARM, FELONY

45-10-103 POSSESS DRUG PARAPHERNALIA, MISDEM (C)

45-9-103 POSSESSION WITH INTENT TO SELL, FELONY (A)

45-9-102 POSSESSION OF DANGEROUS DRUGS, FELONY (B)

45-9-102 POSSESSION OF DANGEROUS DRUGS, FELONY (B)

SOTO, RICKY ANDREW 02/16/2018-14:14218AR0000355 F/12 BUTTE CITY/JUST -

06/12/1989 ********* BSBLED ON-SITE ARREST (CUSTODY) 4700B1800265 94 Days 85500.00

ZZZ-ADDLCHRGE SEE COMMENTS, FELONY

45-9-102 POSSESSION OF DANGEROUS DRUGS, FELONY (B)

45-10-103 POSSESS DRUG PARAPHERNALIA, MISDEM (C)

46-23-1012 PROBATION VIOLATION, VIOL

MCLAUGHLIN, SEAN TERRANCE 02/14/2018-20:40218AR0000341 B/02 GREAT FALLS/BUT -

12/28/1979 ********* OTHER ON-SITE ARREST (CUSTODY) 4700B1800255 96 Days 20000.00

45-5-206 PFMA - SERIOUS BODILY INJURY, FELONY

ZZZ-OOJFEL OUT OF JURISDICTION - FELONY, FELONY

SONNENBERG, MAX BERNARD 02/08/2018-20:00218AR0000303 E/14 BUTTE JUSTICE-W -

08/20/1987 ********* BSBLED ON-SITE ARREST (CUSTODY) 4700C1800511 102 Days 12000.00

46-23-1023 PAROLE VIOLATION, VIOL (F)

ZZZ-OOJMISD OUT OF JURISDICTION - MISD, MISDEM

45-9-102 POSSESSION OF DANGEROUS DRUGS, MISDEM (B)

45-9-102 POSSESSION OF DANGEROUS DRUGS, FELONY (B)

45-10-103 POSSESS DRUG PARAPHERNALIA, MISDEM (C)

LOPEZ, JULIO MARCO 02/05/2018-12:54218AR0000281 F/10 BUTTE DISTRICT- -

03/16/1995 ********* BSBLED WARRANT 4700B1800205 105 Days 0.00

45-7-309 CRIMINAL CONTEMPT, MISDEM

45-7-309 CRIMINAL CONTEMPT, MISDEM

BEAUCHAMP, PATRICIA 02/03/2018-11:37218AR0000267 A/14 BUTTE JUSTICE-K -

12/15/1971 ********* BSBLED WARRANT 4700A1800197 107 Days 30000.00

ZZZ-ADDLCHRGE SEE COMMENTS, FELONY

ZZZ-OOJMISD OUT OF JURISDICTION - MISD, MISDEM

STEVENS, LEO BRADLEY 02/02/2018-14:10218AR0000262 C/09 BUTTE DISTRICT- -

01/21/1988 ********* BSBLED WARRANT 4700B1800193 108 Days 0.00

46-9-503 VIOLATION OF RELEASE CONDITION, VIOL

GUNDERSON, LEVI JOE ROBBY 01/29/2018-21:20218AR0000235 MIN/11 BUTTE DISTRICT -

05/18/1993 ********* BSBLED ON-SITE ARREST (CUSTODY) 4700A1800173 112 Days 65000.00

ZZZ-ADDLCHRGE SEE COMMENTS, FELONY

61-7-105 FAIL TO ID, SELF AND VEHICLE, MISDEM

61-5-102 DRIVING W/OUT VALID D/L, MISDEM (A)

61-6-301 NO LIABILITY INSURANCE IN EFF., MISDEM (A)

45-5-207 CRIMINAL ENDANGERMENT, FELONY

TWEEDY, RONALD JOHN 01/17/2018-12:17218AR0000126 E/08 BUTTE DISTRICT- -

09/07/1979 ********* BSBLED WARRANT 4700A1800108 124 Days 5000.00

ZZZ-INVHOLD INVESTIGATIVE HOLD - 48 HOUR, VIOL

45-7-301 RESISTING ARREST, MISDEM (C)

46-9-503 VIOLATION OF RELEASE CONDITION, FELONY

45-6-204 BURGLARY, NON-RESIDENCE, FELONY

HOUSER, JEREMY ALAN 01/15/2018-07:20218AR0000108 F/13 BUTTE JUSTICE-W -

03/02/1982 ********* BSBLED ON-SITE ARREST (CUSTODY) 4700A1800092 126 Days 58000.00

ZZZ-ADDLCHRGE SEE COMMENTS, FELONY

ZZZ-ADDLCHRGE SEE COMMENTS, MISDEM

46-23-1012 PROBATION VIOLATION, VIOL

61-8-316 FLEEING FROM/ELUDING POLICE, MISDEM

45-6-301 MOTOR VEHICLE THEFT, FELONY (B)

RIDER, ZACHARY LOUIS 12/31/2017-15:29217AR0002558 C/10 BUTTE DISTRICT- -

10/03/1987 ********* BSBLED ON-SITE ARREST (CUSTODY) 4700L1702115 141 Days 21000.00

ZZZ-ADDLCHRGE SEE COMMENTS, FELONY

45-7-301 RESISTING ARREST, MISDEM (C)

45-6-103 ARSON, FELONY

45-5-213 ASSAULT WITH WEAPON, FELONY

HENDERSON, LACI LYNN 12/24/2017-23:55217AR0002508 A/21 BUTTE DISTRICT- -

08/09/1970 ********* BSBLED WARRANT 4700L1702069 148 Days 6000.00

ZZZ-ADDLCHRGE SEE COMMENTS, FELONY

45-10-103 POSSESS DRUG PARAPHERNALIA, MISDEM (C)

45-7-309 CRIMINAL CONTEMPT, MISDEM

45-7-302 OBSTRUCTING A PEACE OFFICER, MISDEM (D)

45-6-301 BUY/POSSESS STOLEN PROPERTY, FELONY

STOUT, LONNIE LEW JR 12/18/2017-16:08217AR0002476 E/07 BUTTE DISTRICT- -

10/03/1969 ********* BSBLED ON-SITE ARREST (CUSTODY) 4700C1800508 154 Days 13500.00

45-5-206 PFMA - MINOR INJ/PHYSICAL CONT, MISDEM

45-5-206 PFMA - MINOR INJ/PHYSICAL CONT, FELONY

45-7-309 CRIMINAL CONTEMPT, MISDEM

ZZZ-OOJMISD OUT OF JURISDICTION - MISD, MISDEM

WATSON, HAROLD JAMES 12/14/2017-14:35217AR0002440 MIN/07 BUTTE DISTRICT- -

05/07/1985 ********* BSBLED WARRANT 4700C1800416 158 Days 0.00

ZZZ-ADDLCHRGE SEE COMMENTS, MISDEM

46-9-503 VIOLATION OF RELEASE CONDITION, VIOL

45-7-309 CRIMINAL CONTEMPT, MISDEM

ZZZ-ADDLCHRGE SEE COMMENTS, FELONY

LARSON, EARL RUSSELL 12/08/2017-15:50217AR0002398 B/12 BUTTE DISTRICT- -

04/26/1994 ********* BSBLED ON-SITE ARREST (CUSTODY) 4700L1701987 164 Days 50000.00

46-18-203 REVOCATION OF SENTENCE, FELONY

BELTRAN, ANTHONY 12/05/2017-12:25217AR0002371 C/06 BUTTE JUSTICE/M -

08/02/1974 ********* BSBLED ON-SITE ARREST (CUSTODY) 4700K1701973 167 Days 25000.00

46-23-1012 PROBATION VIOLATION, VIOL (F)

ZZZ-OOJFEL OUT OF JURISDICTION - FELONY, FELONY

45-9-206 USE PROPERTY SUBJ TO FORFEITUR, FELONY (C)

45-10-103 POSSESS DRUG PARAPHERNALIA, MISDEM (C)

45-9-103 POSSESSION WITH INTENT TO SELL, FELONY (A)

MULLIN, TROY ALLEN 11/16/2017-07:36217AR0002247 MIN/04 BUTTE DISTRICT- -

01/26/1983 ********* AO-203467ON-SITE ARREST (CUSTODY) 4700K1701868 186 Days 25000.00

46-18-203 REVOCATION OF SENTENCE, FELONY

MEDINA, FRANK RUEBEN 11/09/2017-18:05217AR0002203 B/08 BUTTE DISTRICT- -

06/27/1980 ********* BSBLED WARRANT 4700K1701832 193 Days 9500.00

45-9-102 POSSESSION OF DANGEROUS DRUGS, FELONY (B)

45-10-103 POSSESS DRUG PARAPHERNALIA, MISDEM (C)

45-7-309 CRIMINAL CONTEMPT, MISDEM

45-7-309 CRIMINAL CONTEMPT, MISDEM

45-7-309 CRIMINAL CONTEMPT, FELONY

SMITH, ATHENA LYNN 10/25/2017-06:50217AR0002102 A/08 BUTTE JUSTICE-K -

02/02/1987 ********* BSBLED ON-SITE ARREST (CUSTODY) 4700K1701845 208 Days 22000.00

ZZZ-ADDLCHRGE SEE COMMENTS, MISDEM

45-6-301 THEFT, SHOPLIFT, MISDEM (B)

45-5-210 ASSAULT PEACE OFFC - NO INJ, FELONY

45-8-101 DISORDERLY CONDUCT, MISDEM (C)

45-7-302 OBSTRUCTING A PEACE OFFICER, MISDEM (D)

45-7-301 RESISTING ARREST, MISDEM (C)

45-6-301 MOTOR VEHICLE THEFT, FELONY (B)

45-6-204 BURGLARY, NON-RESIDENCE, FELONY

REICH, ROBERT LEE 10/18/2017-18:08217AR0002059 D/02 BUTTE DISTRICT- -

04/30/1986 ********* BSBLED ON-SITE ARREST (CUSTODY) 4700J1701725 215 Days 52000.00

45-5-202 AGGRAVATED ASSAULT, FELONY

45-6-204 AGGRAVATED BURGLARY, FELONY

45-5-206 PFMA - MINOR INJ/PHYSICAL CONT, MISDEM

45-7-308 BAIL JUMPING, FELONY

46-18-203 REVOCATION OF SENTENCE, FELONY

46-9-510 SURRENDER OF DEFENDANT, FELONY

AMPONSAH, SAMUEL 10/16/2017-17:45217AR0002046 B/09 BUTTE DISTRICT -

05/07/1990 ********* BSBLED ON-SITE ARREST (CUSTODY) 4700K1701840 217 Days 50000.00

45-6-317 DECEPTIVE PRACT - FINAN GAIN, FELONY

MAYS, KATRINA MARIE 10/14/2017-12:39217AR0002030 A/15 BUTTE JUSTICE-W -

06/20/1989 ********* BSBLED ON-SITE ARREST (CUSTODY) 4700J1701701 219 Days 0.00

45-10-103 POSSESS DRUG PARAPHERNALIA, MISDEM (C)

45-9-102 POSSESSION OF DANGEROUS DRUGS, FELONY (B)

46-23-1023 PAROLE VIOLATION, VIOL (F)

PUENTES, ERIC LEE 09/27/2017-18:55217AR0001932 C/12 BUTTE DISTRICT- -

09/01/1985 ********* BSBLED ON-SITE ARREST (CUSTODY) 4700I1701617 236 Days 10500.00

45-6-101 CRIMINAL MISCHIEF, FELONY

61-8-316 FLEEING FROM/ELUDING POLICE, MISDEM

61-8-301 RECKLESS DRIVING, MISDEM (A)

61-6-302 FAILURE TO SHOW PROOF OF INS, MISDEM

61-5-212 DRIVE WHILE SUSP. OR REVOKED, MISDEM

45-10-103 POSSESS DRUG PARAPHERNALIA, MISDEM (C)

61-8-401 DUI - (REFUSAL), MISDEM

MCKINNEY, BERNARD ROY 09/15/2017-09:43217AR0001834 C/05 BUTTE DISTRICT -

03/16/1978 ********* BSBLED WARRANT 4700I1701629 248 Days 0.00

45-6-204 BURGLARY, NON-RESIDENCE, FELONY

WRIGHT, JOSEPH JAY 09/15/2017-06:25217AR0001855 C/11 BUTTE DISTRICT- -

12/25/1964 ********* BSBLED ON-SITE ARREST (CUSTODY) 4700I1701542 248 Days 36000.00

46-18-203 REVOCATION OF SENTENCE, FELONY

46-23-1012 PROBATION VIOLATION, VIOL (F)

45-10-103 POSSESS DRUG PARAPHERNALIA, MISDEM (C)

45-9-102 POSSESSION OF DANGEROUS DRUGS, FELONY (B)

LANDRETH, SPENCER THOMAS 09/12/2017-10:56217AR0001825 F/15 BUTTE DISTRICT- -

07/30/1986 ********* AO ON-SITE ARREST (CUSTODY) 4700I1701515 251 Days 11000.00

ZZZ-ADDLCHRGE SEE COMMENTS, MISDEM

46-23-1012 PROBATION VIOLATION, VIOL (F)

AMPHY, JAQUE MARKESE 09/09/2017-17:25217AR0001809 D/03 BUTTE DISTRICT- -

07/19/1990 ********* BSBLED ON-SITE ARREST (CUSTODY) 254 Days 6100.00

45-7-301 RESISTING ARREST, MISDEM (C)

45-8-101 DISORDERLY CONDUCT, MISDEM (C)

45-5-210 ASSAULT PEACE OFFC - NO INJ, FELONY

WILLIAMS, NICHOLAS JARED 08/28/2017-21:15217AR0001711 B/10 BUTTE DISTRICT- -

06/01/1989 ********* BSBLED WARRANT 4700H1701428 266 Days 6585.00

46-9-510 SURRENDER OF DEFENDANT, VIOL

45-6-301 THEFT, ALL OTHERS, FELONY (B)

45-6-301 MOTOR VEHICLE THEFT, FELONY (B)

45-6-301 THEFT, ALL OTHERS, FELONY (B)

45-6-301 THEFT BY EMBEZZLEMENT, FELONY (B)

KOLOSKEE, KRISTA ILENE 08/11/2017-15:35217AR0001600 A/11 BUTTE DISTRICT- -

05/13/1978 ********* BSBLED ON-SITE ARREST (CUSTODY) 4700H1701342 283 Days 5000.00

ZZZ-ADDLCHRGE SEE COMMENTS, MISDEM

46-23-1023 PAROLE VIOLATION, VIOL (F)

45-9-102 POSSESSION OF DANGEROUS DRUGS, FELONY (B)

45-6-301 THEFT, SHOPLIFT, MISDEM (B)

HOWER, BRIAN BRUCE 08/03/2017-20:15217AR0001556 MIN/02 BUTTE DISTRICT- -

08/10/1961 ********* BSBLED ON-SITE ARREST (CUSTODY) 4700I1701631 291 Days 50000.00

45-5-213 ASSAULT WITH WEAPON, FELONY

45-5-213 ASSAULT WITH WEAPON, FELONY

RODRIGUEZ, MATTHEW JOSEPH 07/28/2017-19:38217AR0001501 MIN/05 BUTTE DISTRICT- -

07/22/1986 ********* BSBLED ON-SITE ARREST (CUSTODY) 4700G1701263 297 Days 10000.00

45-5-503 SIWOC, FELONY

ZZZ-OOJHOLD OUT OF JURISDICTION HOLD, VIOL

WILSON, MICHAEL DONOVEN 06/26/2017-18:10217AR0001262 MIN/06 BUTTE DISTRICT- -

06/19/1975 ********* BSBLED ON-SITE ARREST (CUSTODY) 4700F1701046 329 Days 50000.00

45-7-309 CRIMINAL CONTEMPT, MISDEM

45-7-309 CRIMINAL CONTEMPT, MISDEM

45-5-507 INCEST, FELONY

GULBRO, JESSE LEE 06/14/2017-19:07217AR0001186 B/11 BUTTE DISTRICT- -

03/23/1978 ********* BSBLED ON-SITE ARREST (CUSTODY) 4700F1700980 341 Days 50000.00

45-7-309 CRIMINAL CONTEMPT, MISDEM

45-5-201 ASSAULT, SIMPLE, MISDEM

45-5-213 ASSAULT WITH WEAPON, FELONY

TOTAL 95

 

RELEASED

Prisoner / DOB / SocSec / Agency# Booked Booking# Pod Hold For / Bond Release

 

HOLLAMON, KELEIGH KATHLEEN 05/21/2018-02:00218AR0001066 MIN/16 BUTTE CITY COUR 05/21/2018-03:50

08/22/1989 ********* BSBLED ON-SITE ARREST (CUSTODY) 4700E1800827 0 Days 685.00 05/21/2018

61-8-406 DUI PER SE .08 OR GREATER, MISDEM (C)

PALMER, JOHN CHARLES 05/20/2018-03:58218AR0001065 E/18 BUTTE CITY COUR 05/20/2018-04:52

06/13/1965 ********* BSBLED ON-SITE ARREST (CUSTODY) 4700E1800825 0 Days 1320.00 05/20/2018

61-11-213 HABITUAL OFFENDER OPER. VEH, MISDEM

61-5-212 DRIVE WHILE SUSP. OR REVOKED, MISDEM

WEST, KALSEE JO 05/20/2018-00:40218AR0001062 MIN/18 BUTTE CITY COUR 05/20/2018-10:53

10/31/1990 ********* BSBLED ON-SITE ARREST (CUSTODY) 4700E1800826 0 Days 185.00 05/20/2018

45-8-102 FAILURE TO DISPERSE, MISDEM

SERICH, AMY LYNN 05/18/2018-17:15218AR0001057 H2/01 BUTTE DISTRICT 05/20/2018-17:08

04/15/1968 ********* BSBLED ON-SITE ARREST (CUSTODY) NONENEEDED 2 Days 0.00 05/20/2018

ZZZ-SENTENCE SERVING SENTENCE, FELONY

SNYDER, FELICE ANNE 05/18/2018-13:50218AR0001054 A/01 GRANGER 05/18/2018-15:28

02/19/1974 ********* BSBLED WARRANT 4700E1800819 0 Days 1000.00 05/18/2018

45-6-301 THEFT, ALL OTHERS, MISDEM (B)

EALY, GREGORY ADOLFO 05/18/2018-13:45218AR0001053 MIN/01 GRANGER 05/18/2018-15:58

12/29/1972 ********* BSBLED WARRANT 4700E1800820 0 Days 4000.00 05/18/2018

45-7-309 CRIMINAL CONTEMPT, MISDEM

45-7-309 CRIMINAL CONTEMPT, MISDEM

TRANDAHL, DANA ANN 05/18/2018-10:48218AR0001050 A/01 BUTTE JUSTICE C 05/18/2018-13:40

06/30/1963 ********* BSBLED WARRANT 4700E1800815 0 Days 5000.00 05/18/2018

45-6-313 MEDICAID FRAUD, FELONY

BRIEN, SHELDON ALBERT 05/17/2018-23:48218AR0001047 H2/01 BUTTE CITY COUR 05/18/2018-14:42

11/23/1985 ********* BSBLED ON-SITE ARREST (CUSTODY) 4700E1800816 1 Days 185.00 05/18/2018

45-8-102 FAILURE TO DISPERSE, MISDEM

DAUGHERTY, RYAN DAVID 05/17/2018-15:50218AR0001044 F/07 AP&P 05/20/2018-06:10

07/29/1990 ********* APP ON-SITE ARREST (CUSTODY) 3 Days 0.00 05/20/2018

46-23-1012 PROBATION VIOLATION, VIOL (F)

WEBBER, ZACHARY RYAN 05/17/2018-15:10218AR0001043 PC/01 BUTTE CITY COUR 05/18/2018-15:05

04/21/1979 ********* BSBLED ON-SITE ARREST (CUSTODY) 4700E1800818 1 Days 185.00 05/18/2018

45-8-101 DISORDERLY CONDUCT, MISDEM (C)

KINDT, LINDSEY ILLYENE 05/17/2018-12:19218AR0001040 A/01 MADISON COUNTY 05/18/2018-07:26

03/29/1983 ********* BSBLED ON-SITE ARREST (CUSTODY) 1 Days 10000.00 05/18/2018

ZZZ-OOJFEL OUT OF JURISDICTION - FELONY, FELONY

ATKINS, TIMOTHY JAMES 05/07/2018-19:30218AR0000976 MIN/12 BUTTE JUSTICE 05/18/2018-11:52

06/14/1978 ********* BSBLED ON-SITE ARREST (CUSTODY) 4700E1800762 11 Days 5000.00 05/18/2018

ZZZ-MHPWAR MONTANA HIGHWAY PATROL WARRANT, MISDEM

45-6-301 BUY/POSSESS STOLEN PROPERTY, FELONY

FISHER, BRITNEY LYNN 04/21/2018-04:07218AR0000864 A/01 BUTTE JUSTICE 05/18/2018-13:39

06/06/1989 ********* BSBLED ON-SITE ARREST (CUSTODY) 4700D1800688 27 Days 5000.00 05/18/2018

45-6-301 BUY/POSSESS STOLEN PROPERTY, FELONY

BORONI, ETHAN CHRISTOPHER 03/08/2018-21:20218AR0000507 C/08 BUTTE JUSTICE - 05/18/2018-02:51

05/28/1998 ********* BSBLED WARRANT 4700C1800380 71 Days 16000.00 05/18/2018

45-6-105 TAMPER W/ COMMUNICATION DEVICE, MISDEM

45-5-213 ASSAULT WITH WEAPON, FELONY

45-5-207 CRIMINAL ENDANGERMENT, FELONY

KOVASH, JONATHON PAUL II 08/23/2017-15:40217AR0001670 E/13 MSP 05/18/2018-12:41

09/22/1988 ********* BSBLED ON-SITE ARREST (CUSTODY) 4700H1701398 268 Days 0.00 05/18/2018

ZZZ-ADDLCHRGE SEE COMMENTS, MISDEM

45-9-101 CRIM SALE OF DANGEROUS DRUGS, FELONY (A)

46-23-1023 PAROLE VIOLATION, VIOL (F)

45-10-103 POSSESS DRUG PARAPHERNALIA, MISDEM (C)

45-9-102 POSSESSION OF DANGEROUS DRUGS, FELONY (B)

SHEA, PATRICK WILLIAM 03/29/2017-16:15217AR0000624 MIN/03 MSP 05/18/2018-12:42

12/04/1955 ********* BSBLED ON-SITE ARREST (CUSTODY) 4700C1700533 415 Days 75000.00 05/18/2018

45-5-625 SEXUAL ABUSE OF CHILDREN, FELONY

TOTAL 16

BSB police report ending May 18, 2018

"05/17/2018","00:15","218CR0012066","BUSINESS CHECK","BUSINESS CHECK","2711 HARRISON AVE","",""
"05/17/2018","00:29","218CR0012067","ALARM - BURGLARY","ALARM - BURGLARY","************","",""
"05/17/2018","01:14","218CR0012068","MEDICAL - EMERGENCY","MEDICAL - EMERGENCY","3400 HILL AVE #1305","",""
"05/17/2018","01:23","218CR0012069","T/S","T/S @ SILVER ST AND IDAHO ST","SILVER ST AND IDAHO ST","",""
"05/17/2018","01:55","218CR0012070","DISTURBANCE","DISTURBANCE","1200 ROW SILVERBOW HOMES","",""
"05/17/2018","02:03","218CR0012071","WANTED PERSON","RESISTING ARREST","ARIZONA AND PLATINUM","ARREST(s) MADE",""
"05/17/2018","02:39","218CR0012072","DISTURBANCE","DISTURBANCE","1612 SILVERBOW HOMES","",""
"05/17/2018","04:29","218CR0012073","SUSPICIOUS ACTIVITY","SUSPICIOUS ACTIVITY","ALABAMA AND SILVER","",""
"05/17/2018","07:14","218CR0012074","THEFT","THEFT","225 N ALASKA","",""
"05/17/2018","07:30","218CR0012075","THEFT","THEFT, ALL OTHERS","1707 CONTINENTAL HARDESTY COMP","",""
"05/17/2018","07:49","218CR0012076","ALARM - FIRE","ALARM - FIRE","119041 GERMAN GULCH RD","",""
"05/17/2018","08:44","218CR0012077","DETENTION BUSINESS","DETENTION BUSINESS","************","",""
"05/17/2018","08:51","218CR0012078","INTIMIDATION","INTIMIDATION","2501 PARROT ST","",""
"05/17/2018","08:52","218CR0012079","JUVENILE MISC","JUVENILE MISC","************","",""
"05/17/2018","08:53","218CR0012080","DRUGS","DRUGS","************","",""
"05/17/2018","08:58","218CR0012081","SUSPICIOUS ACTIVITY","SUSPICIOUS ACTIVITY","2600 GRAND AVE","",""
"05/17/2018","09:02","218CR0012082","DISTURBANCE","DISTURBANCE","635 W PARK","",""
"05/17/2018","09:03","218CR0012083","CIVIL PAPER SERVICE","CIVIL PAPER SERVICE","2340 CORNEL FAIRFIELD INN","",""
"05/17/2018","09:15","218CR0012084","HARASSMENT","HARASSMENT","520 W PARK","",""
"05/17/2018","09:19","218CR0012085","ASSIST OTHER AGENCY","ASSIST OTHER AGENCY","50 W BROADWAY","",""
"05/17/2018","09:22","218CR0012086","VANDALISM/CRIMINAL MISCHIEF","CRIMINAL MISCHIEF","I15 MM 125 SB","",""
"05/17/2018","09:35","218CR0012087","CRIMINAL TRESPASS","CRIMINAL TRESPASS","201 CONTINENTAL MT NATURAL MED","",""
"05/17/2018","09:55","218CR0012088","STOLEN VEHICLE","STOLEN VEHICLE","225 N ALASKA","",""
"05/17/2018","10:03","218CR0012089","DETENTION BUSINESS","DETENTION BUSINESS","************","",""
"05/17/2018","10:32","218CR0012090","STOLEN VEHICLE","MOTOR VEHICLE THEFT","1310 SILVER BOW HOMES","",""
"05/17/2018","10:41","218CR0012091","THEFT","THEFT","357 PASSMORE CANYON","",""
"05/17/2018","10:58","218CR0012092","SUSPICIOUS ACTIVITY","SUSPICIOUS ACTIVITY","1370 ELM ST","",""
"05/17/2018","11:01","218CR0012093","FRAUD","THEFT, ALL OTHERS","138 TRAPPER CREEK","",""
"05/17/2018","11:09","218CR0012094","JUVENILE MISC","JUVENILE MISC","************","",""
"05/17/2018","11:33","218CR0012095","CIVIL STANDBY","CIVIL STANDBY","848 S WASHINGTON","",""
"05/17/2018","11:59","218CR0012096","DISORDERLY CONDUCT","RESISTING ARREST","531 W PARK #B","ARREST(s) MADE",""
"05/17/2018","12:00","218CR0012097","SUSPICIOUS ACTIVITY","SUSPICIOUS ACTIVITY","FRONT AND HARRISON","",""
"05/17/2018","12:12","218CR0012098","HARASSMENT","HARASSMENT","","",""
"05/17/2018","12:14","218CR0012099","FIRE- GAS ODOR","FIRE- GAS ODOR","800 HOLMES AVE","",""
"05/17/2018","12:22","218CR0012100","ACCIDENT","ACCIDENT","1100 BLK E FRONT","",""
"05/17/2018","12:25","218CR0012101","CITIZEN AID","CITIZEN AID","","",""
"05/17/2018","12:43","218CR0012104","ABANDONED VEHICLE","ABANDONED VEHICLE","921 NEVADA","",""
"05/17/2018","12:45","218CR0012103","SUSPICIOUS ACTIVITY","SUSPICIOUS ACTIVITY","1325 KAW AVE","",""
"05/17/2018","13:20","218CR0012106","ACCIDENT- INJURY(MHP)","ACCIDENT- INJURY(MHP)","I90 MM 232 EB","",""
"05/17/2018","13:28","218CR0012107","MEDICAL - EMERGENCY","MEDICAL - EMERGENCY","1910 YALE","",""
"05/17/2018","13:31","218CR0012108","MEDICAL - EMERGENCY","MEDICAL - EMERGENCY","3201 KEOKUK","",""
"05/17/2018","13:38","218CR0012109","ACCIDENT- INJURY(MHP)","ACCIDENT- INJURY(MHP)","I15 MM 141 NB","",""
"05/17/2018","13:49","218CR0012110","LED BUSINESS","LED BUSINESS","155 W GRANITE","",""
"05/17/2018","13:55","218CR0012111","SUSPICIOUS ACTIVITY","SUSPICIOUS ACTIVITY","IDAHO ST AND MERCURY ST","",""
"05/17/2018","14:28","218CR0012112","ALARM - BURGLARY","ALARM - BURGLARY","************","",""
"05/17/2018","14:31","218CR0012113","T/S","T/S @ MONTANA ST AND ALUMINUM ST","MONTANA ST AND ALUMINUM ST","",""
"05/17/2018","14:37","218CR0012114","DISTURBANCE","DISORDERLY CONDUCT","BROADWAY AND DAKOTA","ARREST(s) MADE",""
"05/17/2018","14:45","218CR0012115","WANTED PERSON","VIOLATION OF RELEASE CONDITION","106 W BROADWAY SILVER HOUSE","ARREST(s) MADE",""
"05/17/2018","14:53","218CR0012116","ASSIST OTHER AGENCY","PROBATION VIOLATION","827 EVANS ST","",""
"05/17/2018","15:35","218CR0012117","THEFT","THEFT","225 N ALASKA","",""
"05/17/2018","15:44","218CR0012118","VANDALISM/CRIMINAL MISCHIEF","VANDALISM/CRIMINAL MISCHIEF","1659 SCHLEY","",""
"05/17/2018","16:07","218CR0012119","T/S","T/S @ MAIN AND MERCURY","MAIN AND MERCURY","",""
"05/17/2018","16:15","218CR0012120","T/S","T/S @ ARIZONA ST AND CURTIS ST","ARIZONA ST AND CURTIS ST","",""
"05/17/2018","16:23","218CR0012121","UNWANTED PERSON","UNWANTED PERSON","************","",""
"05/17/2018","16:29","218CR0012122","WANTED PERSON","RESISTING ARREST","1100 BLK S MAIN","ARREST(s) MADE",""
"05/17/2018","16:49","218CR0012123","T/S","T/S @ DEWEY AND OREGON","DEWEY AND OREGON","",""
"05/17/2018","16:58","218CR0012124","T/S","T/S","3900 BLK OF HARRISON","",""
"05/17/2018","17:19","218CR0012125","T/S","T/S @ 700 BLK EVANS ST","700 BLK EVANS ST","",""
"05/17/2018","17:39","218CR0012126","ACCIDENT","ACCIDENT","SAFEWAY / FRONT ST","",""
"05/17/2018","17:51","218CR0012127","FRAUD","FRAUD","2609 HARRISON","",""
"05/17/2018","17:59","218CR0012128","INFORMATION ONLY","INFORMATION ONLY","","",""
"05/17/2018","18:08","218CR0012129","ACCIDENT","ACCIDENT","2537 HARRISON","",""
"05/17/2018","18:36","218CR0012130","PRIVACY IN COMMUNICATIONS","PRIVACY IN COMMUNICATIONS","************","",""
"05/17/2018","18:38","218CR0012131","UNWANTED PERSON","UNWANTED PERSON","************","",""
"05/17/2018","18:58","218CR0012132","MEDICAL - EMERGENCY","MEDICAL - EMERGENCY","1201 COBBAN ST","",""
"05/17/2018","19:31","218CR0012133","RESTRAINING ORDER VIOLATION","VIOLATION OF PROTECTION ORDER","969 N MAIN ST","",""
"05/17/2018","19:33","218CR0012134","ATL","ATL","2104 UTAH","",""
"05/17/2018","20:22","218CR0012135","SUICIDE ATTEMPT/THREAT","SUICIDE ATTEMPT/THREAT","************","",""
"05/17/2018","20:51","218CR0012136","STOLEN VEHICLE","STOLEN VEHICLE","1818 REYNOLDS AVE","",""
"05/17/2018","20:56","218CR0012137","UNKNOWN PROBLEM","UNKNOWN PROBLEM","1811 FOUR MILE ROAD","",""
"05/17/2018","21:06","218CR0012138","SUSPICIOUS ACTIVITY","SUSPICIOUS ACTIVITY","901 E FRONT ST","",""
"05/17/2018","21:20","218CR0012139","ALARM - BURGLARY","ALARM - BURGLARY","************","",""
"05/17/2018","21:24","218CR0012140","ALARM - BURGLARY","ALARM - BURGLARY","************","",""
"05/17/2018","21:26","218CR0012141","DISTURBANCE","DISTURBANCE","3451 KENNEDY","",""
"05/17/2018","22:04","218CR0012142","UNWANTED PERSON","UNWANTED PERSON","************","",""
"05/17/2018","22:28","218CR0012143","HARASSMENT","HARASSMENT","848 W PARK ST","",""
"05/17/2018","23:13","218CR0012144","WELFARE CHECK","FAILURE TO DISPERSE","901 EAST FRONT ST","ARREST(s) MADE",""
"05/17/2018","23:25","218CR0012145","UNWANTED PERSON","UNWANTED PERSON","************","",""
"05/17/2018","23:55","218CR0012146","MEDICAL - EMERGENCY","MEDICAL - EMERGENCY","2031 GAYLORD ST","",""
"05/18/2018","00:04","218CR0012147","SUSPICIOUS ACTIVITY","SUSPICIOUS ACTIVITY","CIVIC CENTER PARKING LOT","",""
"05/18/2018","00:16","218CR0012148","SUSPICIOUS ACTIVITY","SUSPICIOUS ACTIVITY","ELM AND WILSON","",""
"05/18/2018","00:25","218CR0012149","SUSPICIOUS ACTIVITY","DISORDERLY CONDUCT","1324 HARRISON","",""
"05/18/2018","01:08","218CR0012150","T/S","T/S","MONTANA AND FRONT ST","",""
"05/18/2018","02:17","218CR0012152","BUSINESS CHECK","BUSINESS CHECK","531 S MONTANA","",""
"05/18/2018","02:19","218CR0012153","UNWANTED PERSON","UNWANTED PERSON","************","",""
"05/18/2018","02:28","218CR0012154","SUSPICIOUS ACTIVITY","SUSPICIOUS ACTIVITY","1653 HARRISON","",""
"05/18/2018","04:43","218CR0012155","SUSPICIOUS ACTIVITY","SUSPICIOUS ACTIVITY","10 BLK E GRANITE","",""
"05/18/2018","05:25","218CR0012156","UNWANTED PERSON","UNWANTED PERSON","************","",""
"05/18/2018","05:45","218CR0012157","ALL OTHER","ALL OTHER","2031 GAYLORD","",""
"05/18/2018","06:34","218CR0012158","ASSAULT","ASSAULT, SIMPLE","LEGGAT APTS/50 W BROADWAY","ARREST(s) MADE",""
"05/18/2018","06:37","218CR0012159","CIVIL PAPER SERVICE","CIVIL PAPER SERVICE","9 N MAIN","",""
 

Subcategories

Monday the 23rd. Affiliate Marketing.
Copyright 2012

©